Observation data for Endee on 12/08/2018      Previous  Date       Current Mesonet Observations  Soil Data  Daily Summary Page  Observations in Plain Language
KEN1 080600Z 06003KT 01/M04 A303 RMK A01 T00101035  RH  072%=      5-min Rain = 0
KEN1 080601Z 06003KT 01/M04 A303 RMK A01 T00101035  RH  072%=      5-min Rain = 0
KEN1 080602Z 06003KT 01/M04 A303 RMK A01 T00101035  RH  072%=      5-min Rain = 0
KEN1 080603Z 06003KT 01/M04 A303 RMK A01 T00101035  RH  072%=      5-min Rain = 0
KEN1 080604Z 06004KT 01/M04 A303 RMK A01 T00101035  RH  072%=      5-min Rain = 0
KEN1 080605Z 07004KT 01/M04 A303 RMK A01 T00101036  RH  071%=      5-min Rain = 0
KEN1 080606Z 06004KT 01/M04 A303 RMK A01 T00101037  RH  071%=      5-min Rain = 0
KEN1 080607Z 06003KT 01/M04 A303 RMK A01 T00101037  RH  071%=      5-min Rain = 0
KEN1 080608Z 07003KT 01/M04 A303 RMK A01 T00101037  RH  071%=      5-min Rain = 0
KEN1 080609Z 05002KT 01/M04 A303 RMK A01 T00101037  RH  071%=      5-min Rain = 0
KEN1 080610Z 05003KT 01/M04 A303 RMK A01 T00101036  RH  071%=      5-min Rain = 0
KEN1 080611Z 04003KT 01/M04 A303 RMK A01 T00101036  RH  071%=      5-min Rain = 0
KEN1 080612Z 05003KT 01/M04 A303 RMK A01 T00101036  RH  072%=      5-min Rain = 0
KEN1 080613Z 06003KT 01/M04 A303 RMK A01 T00101036  RH  072%=      5-min Rain = 0
KEN1 080614Z 05003KT 01/M04 A303 RMK A01 T00101036  RH  072%=      5-min Rain = 0
KEN1 080615Z 05004KT 01/M04 A303 RMK A01 T00101035  RH  072%=      5-min Rain = 0
KEN1 080616Z 05004KT 01/M04 A303 RMK A01 T00101035  RH  072%=      5-min Rain = 0
KEN1 080617Z 06005KT 01/M04 A303 RMK A01 T00101036  RH  071%=      5-min Rain = 0
KEN1 080618Z 06005KT 01/M04 A303 RMK A01 T00101037  RH  071%=      5-min Rain = 0
KEN1 080619Z 05005KT 01/M04 A303 RMK A01 T00101037  RH  071%=      5-min Rain = 0
KEN1 080620Z 05005KT 01/M04 A303 RMK A01 T00101038  RH  071%=      5-min Rain = 0
KEN1 080621Z 05005KT 01/M04 A303 RMK A01 T00101038  RH  070%=      5-min Rain = 0
KEN1 080622Z 05006KT 01/M04 A303 RMK A01 T00101038  RH  070%=      5-min Rain = 0
KEN1 080623Z 05005KT 01/M04 A303 RMK A01 T00101038  RH  070%=      5-min Rain = 0
KEN1 080624Z 05005KT 01/M04 A303 RMK A01 T00101038  RH  070%=      5-min Rain = 0
KEN1 080625Z 05004KT 01/M04 A303 RMK A01 T00101038  RH  070%=      5-min Rain = 0
KEN1 080626Z 05004KT 01/M04 A303 RMK A01 T00101038  RH  070%=      5-min Rain = 0
KEN1 080627Z 05004KT 01/M04 A303 RMK A01 T00101038  RH  070%=      5-min Rain = 0
KEN1 080628Z 05004KT 01/M04 A303 RMK A01 T00101038  RH  070%=      5-min Rain = 0
KEN1 080629Z 04004KT 01/M04 A303 RMK A01 T00101038  RH  071%=      5-min Rain = 0
KEN1 080630Z 05003KT 01/M04 A303 RMK A01 T00091038  RH  071%=      5-min Rain = 0
KEN1 080631Z 06003KT 01/M04 A303 RMK A01 T00091038  RH  071%=      5-min Rain = 0
KEN1 080632Z 06004KT 01/M04 A303 RMK A01 T00091038  RH  071%=      5-min Rain = 0
KEN1 080633Z 05004KT 01/M04 A303 RMK A01 T00091037  RH  071%=      5-min Rain = 0
KEN1 080634Z 05004KT 01/M04 A303 RMK A01 T00091037  RH  071%=      5-min Rain = 0
KEN1 080635Z 05003KT 01/M04 A303 RMK A01 T00091038  RH  071%=      5-min Rain = 0
KEN1 080636Z 04004KT 01/M04 A303 RMK A01 T00091038  RH  071%=      5-min Rain = 0
KEN1 080637Z 03004KT 01/M04 A303 RMK A01 T00091038  RH  071%=      5-min Rain = 0
KEN1 080638Z 04004KT 01/M04 A303 RMK A01 T00101038  RH  071%=      5-min Rain = 0
KEN1 080639Z 04004KT 01/M04 A303 RMK A01 T00091038  RH  070%=      5-min Rain = 0
KEN1 080640Z 04004KT 01/M04 A303 RMK A01 T00091038  RH  071%=      5-min Rain = 0
KEN1 080641Z 03003KT 01/M04 A303 RMK A01 T00091038  RH  071%=      5-min Rain = 0
KEN1 080642Z 04003KT 01/M04 A303 RMK A01 T00091038  RH  071%=      5-min Rain = 0
KEN1 080643Z 03003KT 01/M04 A303 RMK A01 T00091038  RH  071%=      5-min Rain = 0
KEN1 080644Z 02003KT 01/M04 A303 RMK A01 T00091038  RH  071%=      5-min Rain = 0
KEN1 080645Z 02003KT 01/M04 A303 RMK A01 T00091038  RH  071%=      5-min Rain = 0
KEN1 080646Z 03002KT 01/M04 A303 RMK A01 T00091037  RH  071%=      5-min Rain = 0
KEN1 080647Z 03002KT 01/M04 A303 RMK A01 T00091037  RH  071%=      5-min Rain = 0
KEN1 080648Z 03003KT 01/M04 A303 RMK A01 T00091037  RH  071%=      5-min Rain = 0
KEN1 080649Z 04003KT 01/M04 A303 RMK A01 T00091038  RH  071%=      5-min Rain = 0
KEN1 080650Z 04003KT 01/M04 A303 RMK A01 T00091037  RH  071%=      5-min Rain = 0
KEN1 080651Z 04003KT 01/M04 A303 RMK A01 T00101037  RH  071%=      5-min Rain = 0
KEN1 080652Z 04003KT 01/M04 A303 RMK A01 T00091037  RH  071%=      5-min Rain = 0
KEN1 080653Z 03003KT 01/M04 A303 RMK A01 T00091037  RH  071%=      5-min Rain = 0
KEN1 080654Z 04003KT 01/M04 A303 RMK A01 T00091037  RH  071%=      5-min Rain = 0
KEN1 080655Z 03003KT 01/M04 A303 RMK A01 T00091037  RH  071%=      5-min Rain = 0
KEN1 080656Z 02003KT 01/M04 A303 RMK A01 T00091036  RH  072%=      5-min Rain = 0
KEN1 080657Z 02004KT 01/M04 A303 RMK A01 T00091036  RH  072%=      5-min Rain = 0
KEN1 080658Z 03003KT 01/M04 A303 RMK A01 T00091036  RH  072%=      5-min Rain = 0
KEN1 080659Z 03004KT 01/M04 A303 RMK A01 T00091036  RH  072%=      5-min Rain = 0
KEN1 080700Z 04004KT 01/M04 A303 RMK A01 T00091036  RH  072%=      5-min Rain = 0
KEN1 080701Z 03004KT 01/M04 A303 RMK A01 T00091037  RH  072%=      5-min Rain = 0
KEN1 080702Z 03005KT 01/M04 A303 RMK A01 T00091037  RH  071%=      5-min Rain = 0
KEN1 080703Z 04004KT 01/M04 A303 RMK A01 T00091038  RH  071%=      5-min Rain = 0
KEN1 080704Z 03004KT 01/M04 A303 RMK A01 T00091038  RH  071%=      5-min Rain = 0
KEN1 080705Z 03004KT 01/M04 A303 RMK A01 T00091037  RH  071%=      5-min Rain = 0
KEN1 080706Z 04005KT 01/M04 A303 RMK A01 T00091037  RH  071%=      5-min Rain = 0
KEN1 080707Z 04005KT 01/M04 A303 RMK A01 T00091038  RH  071%=      5-min Rain = 0
KEN1 080708Z 04005KT 01/M04 A303 RMK A01 T00091038  RH  071%=      5-min Rain = 0
KEN1 080709Z 04005KT 01/M04 A3029 RMK A01 T00091038  RH  071%=      5-min Rain = 0
KEN1 080710Z 04004KT 01/M04 A3029 RMK A01 T00091038  RH  071%=      5-min Rain = 0
KEN1 080711Z 04004KT 01/M04 A3029 RMK A01 T00091038  RH  071%=      5-min Rain = 0
KEN1 080712Z 04004KT 01/M04 A3029 RMK A01 T00091038  RH  071%=      5-min Rain = 0
KEN1 080713Z 04005KT 01/M04 A3029 RMK A01 T00091038  RH  071%=      5-min Rain = 0
KEN1 080714Z 03004KT 01/M04 A3029 RMK A01 T00091038  RH  071%=      5-min Rain = 0
KEN1 080715Z 03004KT 01/M04 A3029 RMK A01 T00091038  RH  071%=      5-min Rain = 0
KEN1 080716Z 03005KT 01/M04 A3029 RMK A01 T00091037  RH  071%=      5-min Rain = 0
KEN1 080717Z 03005KT 01/M04 A3029 RMK A01 T00091037  RH  071%=      5-min Rain = 0
KEN1 080718Z 04005KT 01/M04 A3029 RMK A01 T00081038  RH  071%=      5-min Rain = 0
KEN1 080719Z 04005KT 01/M04 A3029 RMK A01 T00081038  RH  071%=      5-min Rain = 0
KEN1 080720Z 04004KT 01/M04 A3029 RMK A01 T00081037  RH  072%=      5-min Rain = 0
KEN1 080721Z 04004KT 01/M04 A3029 RMK A01 T00081037  RH  072%=      5-min Rain = 0
KEN1 080722Z 04004KT 01/M04 A3029 RMK A01 T00091036  RH  072%=      5-min Rain = 0
KEN1 080723Z 04006KT 01/M04 A3029 RMK A01 T00081036  RH  072%=      5-min Rain = 0
KEN1 080724Z 04006KT 01/M04 A3029 RMK A01 T00091036  RH  072%=      5-min Rain = 0
KEN1 080725Z 03006KT 01/M04 A3028 RMK A01 T00081037  RH  072%=      5-min Rain = 0
KEN1 080726Z 04006KT 01/M04 A3028 RMK A01 T00081037  RH  072%=      5-min Rain = 0
KEN1 080727Z 04006KT 01/M04 A3028 RMK A01 T00081038  RH  072%=      5-min Rain = 0
KEN1 080728Z 03006KT 01/M04 A3028 RMK A01 T00081037  RH  072%=      5-min Rain = 0
KEN1 080729Z 04006KT 01/M04 A3028 RMK A01 T00081037  RH  072%=      5-min Rain = 0
KEN1 080730Z 04006KT 01/M04 A3028 RMK A01 T00081038  RH  072%=      5-min Rain = 0
KEN1 080731Z 04006KT 01/M04 A3028 RMK A01 T00081038  RH  072%=      5-min Rain = 0
KEN1 080732Z 04005KT 01/M04 A3028 RMK A01 T00071038  RH  072%=      5-min Rain = 0
KEN1 080733Z 05005KT 01/M04 A3028 RMK A01 T00081037  RH  072%=      5-min Rain = 0
KEN1 080734Z 05006KT 01/M04 A3028 RMK A01 T00071038  RH  072%=      5-min Rain = 0
KEN1 080735Z 05007KT 01/M04 A3028 RMK A01 T00071038  RH  072%=      5-min Rain = 0
KEN1 080736Z 05005KT 01/M04 A3028 RMK A01 T00071038  RH  071%=      5-min Rain = 0
KEN1 080737Z 05006KT 01/M04 A3028 RMK A01 T00071039  RH  071%=      5-min Rain = 0
KEN1 080738Z 05006KT 01/M04 A3028 RMK A01 T00071039  RH  071%=      5-min Rain = 0
KEN1 080739Z 04005KT 01/M04 A3028 RMK A01 T00071039  RH  071%=      5-min Rain = 0
KEN1 080740Z 04006KT 01/M04 A3028 RMK A01 T00071039  RH  071%=      5-min Rain = 0
KEN1 080741Z 04006KT 01/M04 A3028 RMK A01 T00071038  RH  072%=      5-min Rain = 0
KEN1 080742Z 04005KT 01/M04 A3028 RMK A01 T00071038  RH  072%=      5-min Rain = 0
KEN1 080743Z 04005KT 01/M04 A3028 RMK A01 T00071039  RH  071%=      5-min Rain = 0
KEN1 080744Z 05005KT 01/M04 A3028 RMK A01 T00071039  RH  071%=      5-min Rain = 0
KEN1 080745Z 05005KT 01/M04 A3028 RMK A01 T00071039  RH  071%=      5-min Rain = 0
KEN1 080746Z 05005KT 01/M04 A3028 RMK A01 T00071039  RH  071%=      5-min Rain = 0
KEN1 080747Z 06004KT 01/M04 A3028 RMK A01 T00071039  RH  072%=      5-min Rain = 0
KEN1 080748Z 05005KT 01/M04 A3028 RMK A01 T00071038  RH  072%=      5-min Rain = 0
KEN1 080749Z 05005KT 01/M04 A3028 RMK A01 T00071038  RH  072%=      5-min Rain = 0
KEN1 080750Z 05004KT 01/M04 A3028 RMK A01 T00071038  RH  072%=      5-min Rain = 0
KEN1 080751Z 05004KT 01/M04 A3028 RMK A01 T00071038  RH  072%=      5-min Rain = 0
KEN1 080752Z 04005KT 01/M04 A3028 RMK A01 T00071038  RH  072%=      5-min Rain = 0
KEN1 080753Z 04005KT 01/M04 A3028 RMK A01 T00071038  RH  072%=      5-min Rain = 0
KEN1 080754Z 04005KT 01/M04 A3028 RMK A01 T00071038  RH  072%=      5-min Rain = 0
KEN1 080755Z 05005KT 01/M04 A3028 RMK A01 T00071038  RH  072%=      5-min Rain = 0
KEN1 080756Z 05005KT 01/M04 A3028 RMK A01 T00071038  RH  072%=      5-min Rain = 0
KEN1 080757Z 05005KT 01/M04 A3028 RMK A01 T00071038  RH  072%=      5-min Rain = 0
KEN1 080758Z 05006KT 01/M04 A3028 RMK A01 T00071038  RH  072%=      5-min Rain = 0
KEN1 080759Z 05004KT 01/M04 A3028 RMK A01 T00071038  RH  072%=      5-min Rain = 0
KEN1 080800Z 05006KT 01/M04 A3028 RMK A01 T00071038  RH  072%=      5-min Rain = 0
KEN1 080801Z 05005KT 01/M04 A3028 RMK A01 T00071038  RH  072%=      5-min Rain = 0
KEN1 080802Z 05004KT 01/M04 A3028 RMK A01 T00071038  RH  072%=      5-min Rain = 0
KEN1 080803Z 05005KT 01/M04 A3028 RMK A01 T00071038  RH  072%=      5-min Rain = 0
KEN1 080804Z 05004KT 01/M04 A3028 RMK A01 T00071038  RH  072%=      5-min Rain = 0
KEN1 080805Z 04005KT 01/M04 A3029 RMK A01 T00071038  RH  072%=      5-min Rain = 0
KEN1 080806Z 04005KT 01/M04 A3029 RMK A01 T00071038  RH  072%=      5-min Rain = 0
KEN1 080807Z 05004KT 01/M04 A3029 RMK A01 T00071038  RH  072%=      5-min Rain = 0
KEN1 080808Z 05005KT 01/M04 A3029 RMK A01 T00071038  RH  072%=      5-min Rain = 0
KEN1 080809Z 05005KT 01/M04 A3029 RMK A01 T00071038  RH  072%=      5-min Rain = 0
KEN1 080810Z 04004KT 01/M04 A3029 RMK A01 T00071038  RH  072%=      5-min Rain = 0
KEN1 080811Z 05004KT 01/M04 A3029 RMK A01 T00071038  RH  072%=      5-min Rain = 0
KEN1 080812Z 05004KT 01/M04 A3029 RMK A01 T00071037  RH  072%=      5-min Rain = 0
KEN1 080813Z 05004KT 01/M04 A3029 RMK A01 T00071038  RH  072%=      5-min Rain = 0
KEN1 080814Z 05003KT 01/M04 A3029 RMK A01 T00071038  RH  072%=      5-min Rain = 0
KEN1 080815Z 06003KT 01/M04 A3029 RMK A01 T00071037  RH  072%=      5-min Rain = 0
KEN1 080816Z 05004KT 01/M04 A3029 RMK A01 T00071037  RH  072%=      5-min Rain = 0
KEN1 080817Z 04004KT 01/M04 A3029 RMK A01 T00071037  RH  072%=      5-min Rain = 0
KEN1 080818Z 04005KT 01/M04 A3029 RMK A01 T00071037  RH  072%=      5-min Rain = 0
KEN1 080819Z 05005KT 01/M04 A3029 RMK A01 T00071037  RH  072%=      5-min Rain = 0
KEN1 080820Z 04005KT 01/M04 A3029 RMK A01 T00071038  RH  072%=      5-min Rain = 0
KEN1 080821Z 04004KT 01/M04 A3029 RMK A01 T00071038  RH  072%=      5-min Rain = 0
KEN1 080822Z 05005KT 01/M04 A3029 RMK A01 T00071037  RH  072%=      5-min Rain = 0
KEN1 080823Z 05004KT 01/M04 A3029 RMK A01 T00071037  RH  072%=      5-min Rain = 0
KEN1 080824Z 05004KT 01/M04 A3029 RMK A01 T00071037  RH  072%=      5-min Rain = 0
KEN1 080825Z 06004KT 01/M04 A3029 RMK A01 T00071037  RH  072%=      5-min Rain = 0
KEN1 080826Z 06005KT 01/M04 A3029 RMK A01 T00061037  RH  073%=      5-min Rain = 0
KEN1 080827Z 06005KT 01/M04 A3029 RMK A01 T00071037  RH  072%=      5-min Rain = 0
KEN1 080828Z 05005KT 01/M04 A3029 RMK A01 T00071037  RH  072%=      5-min Rain = 0
KEN1 080829Z 05005KT 01/M04 A3029 RMK A01 T00071037  RH  072%=      5-min Rain = 0
KEN1 080830Z 05005KT 01/M04 A3029 RMK A01 T00071037  RH  072%=      5-min Rain = 0
KEN1 080831Z 05005KT 01/M04 A3029 RMK A01 T00071037  RH  073%=      5-min Rain = 0
KEN1 080832Z 06005KT 01/M04 A3029 RMK A01 T00071037  RH  073%=      5-min Rain = 0
KEN1 080833Z 06004KT 01/M04 A3029 RMK A01 T00061037  RH  073%=      5-min Rain = 0
KEN1 080834Z 06004KT 01/M04 A3029 RMK A01 T00071037  RH  073%=      5-min Rain = 0
KEN1 080835Z 06004KT 01/M04 A3029 RMK A01 T00061037  RH  073%=      5-min Rain = 0
KEN1 080836Z 07004KT 01/M04 A3029 RMK A01 T00061037  RH  073%=      5-min Rain = 0
KEN1 080837Z 06004KT 01/M04 A3029 RMK A01 T00061037  RH  073%=      5-min Rain = 0
KEN1 080838Z 06004KT 01/M04 A3029 RMK A01 T00061037  RH  073%=      5-min Rain = 0
KEN1 080839Z 06004KT 01/M04 A3029 RMK A01 T00061036  RH  073%=      5-min Rain = 0
KEN1 080840Z 04003KT 01/M04 A3029 RMK A01 T00061036  RH  073%=      5-min Rain = 0
KEN1 080841Z 05004KT 01/M04 A3029 RMK A01 T00061036  RH  073%=      5-min Rain = 0
KEN1 080842Z 05003KT 01/M04 A3029 RMK A01 T00061036  RH  073%=      5-min Rain = 0
KEN1 080843Z 05003KT 01/M04 A3029 RMK A01 T00061036  RH  073%=      5-min Rain = 0
KEN1 080844Z 05005KT 01/M04 A3029 RMK A01 T00061036  RH  073%=      5-min Rain = 0
KEN1 080845Z 06004KT 01/M04 A3029 RMK A01 T00061036  RH  073%=      5-min Rain = 0
KEN1 080846Z 05005KT 01/M04 A3029 RMK A01 T00061036  RH  073%=      5-min Rain = 0
KEN1 080847Z 05006KT 01/M04 A3028 RMK A01 T00051037  RH  073%=      5-min Rain = 0
KEN1 080848Z 05006KT 01/M04 A3028 RMK A01 T00061037  RH  073%=      5-min Rain = 0
KEN1 080849Z 05005KT 01/M04 A3028 RMK A01 T00061037  RH  073%=      5-min Rain = 0
KEN1 080850Z 05004KT 01/M04 A3028 RMK A01 T00061037  RH  073%=      5-min Rain = 0
KEN1 080851Z 05004KT 01/M04 A3028 RMK A01 T00061036  RH  073%=      5-min Rain = 0
KEN1 080852Z 06005KT 01/M04 A3028 RMK A01 T00061036  RH  074%=      5-min Rain = 0
KEN1 080853Z 05004KT 01/M04 A3028 RMK A01 T00061036  RH  074%=      5-min Rain = 0
KEN1 080854Z 05004KT 01/M04 A3028 RMK A01 T00061036  RH  074%=      5-min Rain = 0
KEN1 080855Z 05004KT 01/M04 A3028 RMK A01 T00051036  RH  074%=      5-min Rain = 0
KEN1 080856Z 05005KT 01/M04 A3028 RMK A01 T00061036  RH  074%=      5-min Rain = 0
KEN1 080857Z 05004KT 01/M04 A3028 RMK A01 T00061036  RH  074%=      5-min Rain = 0
KEN1 080858Z 05004KT 01/M04 A3028 RMK A01 T00051036  RH  074%=      5-min Rain = 0
KEN1 080859Z 05005KT 01/M04 A3028 RMK A01 T00061036  RH  074%=      5-min Rain = 0
KEN1 080900Z 05004KT 01/M04 A3028 RMK A01 T00061036  RH  074%=      5-min Rain = 0
KEN1 080901Z 05004KT 01/M04 A3028 RMK A01 T00051036  RH  074%=      5-min Rain = 0
KEN1 080902Z 05004KT 01/M04 A3028 RMK A01 T00051036  RH  074%=      5-min Rain = 0
KEN1 080903Z 06005KT 01/M04 A3028 RMK A01 T00051036  RH  074%=      5-min Rain = 0
KEN1 080904Z 05005KT 01/M04 A3028 RMK A01 T00051036  RH  074%=      5-min Rain = 0
KEN1 080905Z 05005KT 01/M04 A3028 RMK A01 T00051035  RH  074%=      5-min Rain = 0
KEN1 080906Z 06005KT 01/M04 A3028 RMK A01 T00051035  RH  074%=      5-min Rain = 0
KEN1 080907Z 06005KT 01/M04 A3028 RMK A01 T00051035  RH  074%=      5-min Rain = 0
KEN1 080908Z 06005KT 01/M04 A3028 RMK A01 T00051035  RH  074%=      5-min Rain = 0
KEN1 080909Z 06005KT 01/M04 A3028 RMK A01 T00051035  RH  075%=      5-min Rain = 0
KEN1 080910Z 06004KT 01/M04 A3028 RMK A01 T00051035  RH  074%=      5-min Rain = 0
KEN1 080911Z 06005KT 01/M04 A3029 RMK A01 T00051035  RH  075%=      5-min Rain = 0
KEN1 080912Z 06004KT 01/M04 A3029 RMK A01 T00051035  RH  075%=      5-min Rain = 0
KEN1 080913Z 07004KT 01/M04 A3029 RMK A01 T00051035  RH  075%=      5-min Rain = 0
KEN1 080914Z 07004KT 01/M04 A3029 RMK A01 T00051035  RH  075%=      5-min Rain = 0
KEN1 080915Z 07004KT 01/M03 A3029 RMK A01 T00051034  RH  075%=      5-min Rain = 0
KEN1 080916Z 07005KT 00/M04 A3029 RMK A01 T00041035  RH  075%=      5-min Rain = 0
KEN1 080917Z 06005KT 00/M04 A3029 RMK A01 T00041035  RH  075%=      5-min Rain = 0
KEN1 080918Z 07005KT 00/M04 A3029 RMK A01 T00041035  RH  075%=      5-min Rain = 0
KEN1 080919Z 07005KT 00/M04 A3029 RMK A01 T00041035  RH  075%=      5-min Rain = 0
KEN1 080920Z 07004KT 01/M03 A3029 RMK A01 T00051034  RH  075%=      5-min Rain = 0
KEN1 080921Z 07004KT 00/M03 A3028 RMK A01 T00041034  RH  075%=      5-min Rain = 0
KEN1 080922Z 07005KT 00/M04 A3028 RMK A01 T00041035  RH  075%=      5-min Rain = 0
KEN1 080923Z 07004KT 00/M04 A3028 RMK A01 T00041035  RH  075%=      5-min Rain = 0
KEN1 080924Z 07004KT 00/M03 A3028 RMK A01 T00041034  RH  076%=      5-min Rain = 0
KEN1 080925Z 07005KT 00/M03 A3028 RMK A01 T00041034  RH  076%=      5-min Rain = 0
KEN1 080926Z 07004KT 00/M04 A3029 RMK A01 T00031035  RH  076%=      5-min Rain = 0
KEN1 080927Z 07004KT 00/M04 A3029 RMK A01 T00031035  RH  076%=      5-min Rain = 0
KEN1 080928Z 07004KT 00/M03 A3029 RMK A01 T00031034  RH  076%=      5-min Rain = 0
KEN1 080929Z 07004KT 00/M03 A3029 RMK A01 T00031034  RH  076%=      5-min Rain = 0
KEN1 080930Z 07003KT 00/M03 A3029 RMK A01 T00041034  RH  076%=      5-min Rain = 0
KEN1 080931Z 07004KT 00/M03 A3029 RMK A01 T00031034  RH  076%=      5-min Rain = 0
KEN1 080932Z 07004KT 00/M03 A3029 RMK A01 T00031034  RH  076%=      5-min Rain = 0
KEN1 080933Z 07004KT 00/M03 A3029 RMK A01 T00031034  RH  076%=      5-min Rain = 0
KEN1 080934Z 07005KT 00/M03 A3028 RMK A01 T00031034  RH  076%=      5-min Rain = 0
KEN1 080935Z 07003KT 00/M03 A3028 RMK A01 T00031034  RH  076%=      5-min Rain = 0
KEN1 080936Z 07004KT 00/M03 A3028 RMK A01 T00031034  RH  076%=      5-min Rain = 0
KEN1 080937Z 07004KT 00/M03 A3028 RMK A01 T00031034  RH  076%=      5-min Rain = 0
KEN1 080938Z 07003KT 00/M03 A3028 RMK A01 T00031034  RH  076%=      5-min Rain = 0
KEN1 080939Z 07004KT 00/M03 A3028 RMK A01 T00031034  RH  076%=      5-min Rain = 0
KEN1 080940Z 08003KT 00/M03 A3028 RMK A01 T00031034  RH  076%=      5-min Rain = 0
KEN1 080941Z 08004KT 00/M03 A3028 RMK A01 T00031034  RH  076%=      5-min Rain = 0
KEN1 080942Z 08003KT 00/M03 A3028 RMK A01 T00031034  RH  077%=      5-min Rain = 0
KEN1 080943Z 07004KT 00/M03 A3028 RMK A01 T00031034  RH  077%=      5-min Rain = 0
KEN1 080944Z 07005KT 00/M03 A3028 RMK A01 T00031034  RH  076%=      5-min Rain = 0
KEN1 080945Z 07004KT 00/M03 A3028 RMK A01 T00031034  RH  076%=      5-min Rain = 0
KEN1 080946Z 08003KT 00/M03 A3028 RMK A01 T00031034  RH  076%=      5-min Rain = 0
KEN1 080947Z 07004KT 00/M03 A3028 RMK A01 T00031034  RH  077%=      5-min Rain = 0
KEN1 080948Z 08004KT 00/M03 A3028 RMK A01 T00031034  RH  076%=      5-min Rain = 0
KEN1 080949Z 08004KT 00/M03 A3028 RMK A01 T00031034  RH  076%=      5-min Rain = 0
KEN1 080950Z 08004KT 00/M03 A3028 RMK A01 T00031034  RH  076%=      5-min Rain = 0
KEN1 080951Z 08004KT 00/M03 A3028 RMK A01 T00031034  RH  076%=      5-min Rain = 0
KEN1 080952Z 07003KT 00/M03 A3028 RMK A01 T00031034  RH  076%=      5-min Rain = 0
KEN1 080953Z 08004KT 00/M03 A3028 RMK A01 T00031034  RH  076%=      5-min Rain = 0
KEN1 080954Z 08003KT 00/M03 A3028 RMK A01 T00031033  RH  077%=      5-min Rain = 0
KEN1 080955Z 07003KT 00/M03 A3028 RMK A01 T00031034  RH  077%=      5-min Rain = 0
KEN1 080956Z 06003KT 00/M03 A3028 RMK A01 T00031033  RH  077%=      5-min Rain = 0
KEN1 080957Z 07004KT 00/M03 A3028 RMK A01 T00031033  RH  077%=      5-min Rain = 0
KEN1 080958Z 07004KT 00/M03 A3028 RMK A01 T00031034  RH  076%=      5-min Rain = 0
KEN1 080959Z 06003KT 00/M03 A3028 RMK A01 T00021034  RH  076%=      5-min Rain = 0
KEN1 081000Z 07004KT 00/M03 A3028 RMK A01 T00031034  RH  076%=      5-min Rain = 0
KEN1 081001Z 07004KT 00/M03 A3028 RMK A01 T00031034  RH  076%=      5-min Rain = 0
KEN1 081002Z 06003KT 00/M03 A3028 RMK A01 T00021034  RH  076%=      5-min Rain = 0
KEN1 081003Z 05004KT 00/M04 A3028 RMK A01 T00021035  RH  076%=      5-min Rain = 0
KEN1 081004Z 06003KT 00/M04 A3028 RMK A01 T00021035  RH  076%=      5-min Rain = 0
KEN1 081005Z 06003KT 00/M03 A3028 RMK A01 T00031034  RH  076%=      5-min Rain = 0
KEN1 081006Z 06003KT 00/M03 A3028 RMK A01 T00021034  RH  076%=      5-min Rain = 0
KEN1 081007Z 06003KT 00/M03 A3028 RMK A01 T00031034  RH  076%=      5-min Rain = 0
KEN1 081008Z 05003KT 00/M03 A3028 RMK A01 T00021034  RH  076%=      5-min Rain = 0
KEN1 081009Z 05004KT 00/M03 A3028 RMK A01 T00021034  RH  076%=      5-min Rain = 0
KEN1 081010Z 05004KT 00/M04 A3028 RMK A01 T00021035  RH  076%=      5-min Rain = 0
KEN1 081011Z 05005KT 00/M04 A3028 RMK A01 T00021036  RH  076%=      5-min Rain = 0
KEN1 081012Z 05005KT 00/M04 A3028 RMK A01 T00021036  RH  075%=      5-min Rain = 0
KEN1 081013Z 06004KT 00/M04 A3028 RMK A01 T00021037  RH  075%=      5-min Rain = 0
KEN1 081014Z 06004KT 00/M04 A3028 RMK A01 T00021037  RH  075%=      5-min Rain = 0
KEN1 081015Z 06003KT 00/M04 A3028 RMK A01 T00021036  RH  075%=      5-min Rain = 0
KEN1 081016Z 06004KT 00/M04 A3028 RMK A01 T00021036  RH  075%=      5-min Rain = 0
KEN1 081017Z 06004KT 00/M04 A3028 RMK A01 T00021037  RH  075%=      5-min Rain = 0
KEN1 081018Z 06004KT 00/M04 A3028 RMK A01 T00011038  RH  075%=      5-min Rain = 0
KEN1 081019Z 06003KT 00/M04 A3028 RMK A01 T00011038  RH  075%=      5-min Rain = 0
KEN1 081020Z 07003KT 00/M04 A3028 RMK A01 T00021038  RH  075%=      5-min Rain = 0
KEN1 081021Z 06003KT 00/M04 A3028 RMK A01 T00011039  RH  075%=      5-min Rain = 0
KEN1 081022Z 06003KT 00/M04 A3027 RMK A01 T00021038  RH  075%=      5-min Rain = 0
KEN1 081023Z 06003KT 00/M04 A3027 RMK A01 T00021038  RH  075%=      5-min Rain = 0
KEN1 081024Z 07003KT 00/M04 A3027 RMK A01 T00011038  RH  075%=      5-min Rain = 0
KEN1 081025Z 06003KT 00/M04 A3027 RMK A01 T00011038  RH  075%=      5-min Rain = 0
KEN1 081026Z 07003KT 00/M04 A3027 RMK A01 T00011038  RH  075%=      5-min Rain = 0
KEN1 081027Z 06003KT 00/M04 A3027 RMK A01 T00011038  RH  075%=      5-min Rain = 0
KEN1 081028Z 06002KT 00/M04 A3027 RMK A01 T00011038  RH  075%=      5-min Rain = 0
KEN1 081029Z 06003KT 00/M04 A3027 RMK A01 T00011037  RH  075%=      5-min Rain = 0
KEN1 081030Z 05003KT 00/M04 A3027 RMK A01 T00011037  RH  075%=      5-min Rain = 0
KEN1 081031Z 05003KT 00/M04 A3027 RMK A01 T00011038  RH  075%=      5-min Rain = 0
KEN1 081032Z 05003KT 00/M04 A3027 RMK A01 T00011038  RH  075%=      5-min Rain = 0
KEN1 081033Z 06003KT 00/M04 A3027 RMK A01 T00011038  RH  075%=      5-min Rain = 0
KEN1 081034Z 06003KT 00/M04 A3027 RMK A01 T00011038  RH  075%=      5-min Rain = 0
KEN1 081035Z 05003KT 00/M04 A3027 RMK A01 T00011037  RH  075%=      5-min Rain = 0
KEN1 081036Z 05004KT 00/M04 A3027 RMK A01 T00011037  RH  076%=      5-min Rain = 0
KEN1 081037Z 04003KT 00/M04 A3027 RMK A01 T00011037  RH  075%=      5-min Rain = 0
KEN1 081038Z 04003KT 00/M04 A3027 RMK A01 T00011037  RH  075%=      5-min Rain = 0
KEN1 081039Z 03003KT 00/M04 A3027 RMK A01 T00011037  RH  076%=      5-min Rain = 0
KEN1 081040Z 04004KT 00/M04 A3027 RMK A01 T00011037  RH  076%=      5-min Rain = 0
KEN1 081041Z 04004KT 00/M04 A3027 RMK A01 T00011037  RH  075%=      5-min Rain = 0
KEN1 081042Z 04003KT 00/M04 A3027 RMK A01 T00011038  RH  075%=      5-min Rain = 0
KEN1 081043Z 04003KT 00/M04 A3027 RMK A01 T00011038  RH  075%=      5-min Rain = 0
KEN1 081044Z 04003KT 00/M04 A3027 RMK A01 T00011038  RH  075%=      5-min Rain = 0
KEN1 081045Z 04003KT 00/M04 A3027 RMK A01 T00011038  RH  075%=      5-min Rain = 0
KEN1 081046Z 05003KT 00/04 A3027 RMK A01 T00000-39  RH  075%=      5-min Rain = 0
KEN1 081047Z 04003KT 00/04 A3027 RMK A01 T00000-39  RH  075%=      5-min Rain = 0
KEN1 081048Z 05003KT 00/04 A3027 RMK A01 T00-00-39  RH  075%=      5-min Rain = 0
KEN1 081049Z 04003KT 00/04 A3027 RMK A01 T00-00-39  RH  075%=      5-min Rain = 0
KEN1 081050Z 04002KT 00/04 A3027 RMK A01 T00-00-39  RH  075%=      5-min Rain = 0
KEN1 081051Z 04003KT 00/04 A3027 RMK A01 T00000-38  RH  075%=      5-min Rain = 0
KEN1 081052Z 03003KT 00/04 A3027 RMK A01 T00-00-39  RH  075%=      5-min Rain = 0
KEN1 081053Z 04003KT 00/04 A3027 RMK A01 T00-00-39  RH  075%=      5-min Rain = 0
KEN1 081054Z 05003KT 00/04 A3027 RMK A01 T00-00-39  RH  075%=      5-min Rain = 0
KEN1 081055Z 05003KT 00/04 A3027 RMK A01 T00-00-39  RH  075%=      5-min Rain = 0
KEN1 081056Z 05003KT 00/04 A3027 RMK A01 T00000-39  RH  075%=      5-min Rain = 0
KEN1 081057Z 05003KT 00/04 A3027 RMK A01 T00000-39  RH  075%=      5-min Rain = 0
KEN1 081058Z 06003KT 00/04 A3027 RMK A01 T00-00-40  RH  075%=      5-min Rain = 0
KEN1 081059Z 06002KT 00/04 A3027 RMK A01 T00-00-40  RH  075%=      5-min Rain = 0
KEN1 081100Z 05003KT 00/04 A3027 RMK A01 T00-00-39  RH  075%=      5-min Rain = 0
KEN1 081101Z 05003KT 00/04 A3027 RMK A01 T00000-39  RH  075%=      5-min Rain = 0
KEN1 081102Z 04003KT 00/04 A3027 RMK A01 T00000-39  RH  075%=      5-min Rain = 0
KEN1 081103Z 04003KT 00/04 A3027 RMK A01 T00-00-39  RH  075%=      5-min Rain = 0
KEN1 081104Z 03002KT 00/04 A3027 RMK A01 T00000-39  RH  075%=      5-min Rain = 0
KEN1 081105Z 02002KT 00/04 A3027 RMK A01 T00000-39  RH  075%=      5-min Rain = 0
KEN1 081106Z 02002KT 00/04 A3027 RMK A01 T00000-38  RH  075%=      5-min Rain = 0
KEN1 081107Z 02003KT 00/04 A3027 RMK A01 T00000-38  RH  076%=      5-min Rain = 0
KEN1 081108Z 02003KT 00/04 A3027 RMK A01 T00000-38  RH  075%=      5-min Rain = 0
KEN1 081109Z 02002KT 00/04 A3027 RMK A01 T00000-38  RH  075%=      5-min Rain = 0
KEN1 081110Z 02003KT 00/04 A3027 RMK A01 T00-00-38  RH  075%=      5-min Rain = 0
KEN1 081111Z 03003KT 00/04 A3027 RMK A01 T00000-38  RH  075%=      5-min Rain = 0
KEN1 081112Z 02003KT 00/04 A3027 RMK A01 T00000-38  RH  075%=      5-min Rain = 0
KEN1 081113Z 02003KT 00/04 A3027 RMK A01 T00-00-38  RH  076%=      5-min Rain = 0
KEN1 081114Z 02003KT 00/04 A3027 RMK A01 T00000-38  RH  076%=      5-min Rain = 0
KEN1 081115Z 01003KT 00/04 A3027 RMK A01 T00000-37  RH  076%=      5-min Rain = 0
KEN1 081116Z 02003KT 00/04 A3027 RMK A01 T00000-37  RH  076%=      5-min Rain = 0
KEN1 081117Z 02003KT 00/04 A3027 RMK A01 T00000-37  RH  076%=      5-min Rain = 0
KEN1 081118Z 02004KT 00/04 A3027 RMK A01 T00-00-37  RH  076%=      5-min Rain = 0
KEN1 081119Z 02003KT 00/04 A3027 RMK A01 T00-00-37  RH  076%=      5-min Rain = 0
KEN1 081120Z 03004KT M00/M04 A3026 RMK A01 T10011037  RH  076%=      5-min Rain = 0
KEN1 081121Z 03003KT M00/M04 A3027 RMK A01 T10011037  RH  076%=      5-min Rain = 0
KEN1 081122Z 03003KT 00/04 A3027 RMK A01 T00-00-37  RH  076%=      5-min Rain = 0
KEN1 081123Z 03003KT 00/04 A3027 RMK A01 T00-00-37  RH  077%=      5-min Rain = 0
KEN1 081124Z 03003KT 00/04 A3027 RMK A01 T00-00-37  RH  077%=      5-min Rain = 0
KEN1 081125Z 03003KT 00/04 A3027 RMK A01 T00-00-36  RH  077%=      5-min Rain = 0
KEN1 081126Z 01003KT 00/04 A3027 RMK A01 T00-00-36  RH  077%=      5-min Rain = 0
KEN1 081127Z 01003KT M00/M04 A3026 RMK A01 T10011036  RH  077%=      5-min Rain = 0
KEN1 081128Z 01005KT 00/04 A3026 RMK A01 T00-00-35  RH  077%=      5-min Rain = 0
KEN1 081129Z 01005KT M00/M04 A3026 RMK A01 T10011036  RH  077%=      5-min Rain = 0
KEN1 081130Z 01004KT M00/M04 A3026 RMK A01 T10011036  RH  077%=      5-min Rain = 0
KEN1 081131Z 00005KT M00/M04 A3027 RMK A01 T10011036  RH  078%=      5-min Rain = 0
KEN1 081132Z 01005KT M00/M04 A3027 RMK A01 T10021037  RH  078%=      5-min Rain = 0
KEN1 081133Z 01006KT M00/M04 A3027 RMK A01 T10031037  RH  077%=      5-min Rain = 0
KEN1 081134Z 00006KT M00/M04 A3027 RMK A01 T10031038  RH  077%=      5-min Rain = 0
KEN1 081135Z 00006KT M00/M04 A3027 RMK A01 T10031038  RH  077%=      5-min Rain = 0
KEN1 081136Z 00005KT M00/M04 A3027 RMK A01 T10041039  RH  077%=      5-min Rain = 0
KEN1 081137Z 00005KT M00/M04 A3027 RMK A01 T10041039  RH  077%=      5-min Rain = 0
KEN1 081138Z 00006KT M00/M04 A3027 RMK A01 T10041039  RH  077%=      5-min Rain = 0
KEN1 081139Z 00006KT M00/M04 A3027 RMK A01 T10041039  RH  077%=      5-min Rain = 0
KEN1 081140Z 00006KT M00/M04 A3027 RMK A01 T10041040  RH  077%=      5-min Rain = 0
KEN1 081141Z 36005KT M00/M04 A3027 RMK A01 T10041039  RH  077%=      5-min Rain = 0
KEN1 081142Z 36006KT M00/M04 A3027 RMK A01 T10041039  RH  077%=      5-min Rain = 0
KEN1 081143Z 01005KT M00/M04 A3027 RMK A01 T10041040  RH  077%=      5-min Rain = 0
KEN1 081144Z 01006KT M00/M04 A3027 RMK A01 T10041040  RH  077%=      5-min Rain = 0
KEN1 081145Z 01005KT M01/M04 A3027 RMK A01 T10051041  RH  077%=      5-min Rain = 0
KEN1 081146Z 02005KT M01/M04 A3027 RMK A01 T10051041  RH  076%=      5-min Rain = 0
KEN1 081147Z 02005KT M01/M04 A3027 RMK A01 T10051041  RH  077%=      5-min Rain = 0
KEN1 081148Z 02004KT M01/M04 A3027 RMK A01 T10051041  RH  077%=      5-min Rain = 0
KEN1 081149Z 03005KT M01/M04 A3027 RMK A01 T10051041  RH  077%=      5-min Rain = 0
KEN1 081150Z 03005KT M01/M04 A3027 RMK A01 T10051041  RH  077%=      5-min Rain = 0
KEN1 081151Z 03005KT M01/M04 A3027 RMK A01 T10051041  RH  077%=      5-min Rain = 0
KEN1 081152Z 03005KT M01/M04 A3027 RMK A01 T10051041  RH  076%=      5-min Rain = 0
KEN1 081153Z 03005KT M01/M04 A3027 RMK A01 T10051041  RH  076%=      5-min Rain = 0
KEN1 081154Z 02005KT M01/M04 A3027 RMK A01 T10051042  RH  076%=      5-min Rain = 0
KEN1 081155Z 03005KT M01/M04 A3027 RMK A01 T10051042  RH  077%=      5-min Rain = 0
KEN1 081156Z 03004KT M01/M04 A3027 RMK A01 T10051041  RH  077%=      5-min Rain = 0
KEN1 081157Z 04005KT M01/M04 A3027 RMK A01 T10061041  RH  077%=      5-min Rain = 0
KEN1 081158Z 03004KT M01/M04 A3027 RMK A01 T10051041  RH  077%=      5-min Rain = 0
KEN1 081159Z 03004KT M01/M04 A3027 RMK A01 T10061041  RH  077%=      5-min Rain = 0
KEN1 081200Z 03005KT M01/M04 A3027 RMK A01 T10061042  RH  077%=      5-min Rain = 0
KEN1 081201Z 02004KT M01/M04 A3027 RMK A01 T10061042  RH  076%=      5-min Rain = 0
KEN1 081202Z 02005KT M01/M04 A3027 RMK A01 T10061042  RH  077%=      5-min Rain = 0
KEN1 081203Z 02006KT M01/M04 A3027 RMK A01 T10061042  RH  076%=      5-min Rain = 0
KEN1 081204Z 02006KT M01/M04 A3027 RMK A01 T10061042  RH  076%=      5-min Rain = 0
KEN1 081205Z 02004KT M01/M04 A3027 RMK A01 T10061043  RH  076%=      5-min Rain = 0
KEN1 081206Z 02005KT M01/M04 A3027 RMK A01 T10071043  RH  076%=      5-min Rain = 0
KEN1 081207Z 02006KT M01/M04 A3027 RMK A01 T10071043  RH  076%=      5-min Rain = 0
KEN1 081208Z 01005KT M01/M04 A3027 RMK A01 T10061043  RH  076%=      5-min Rain = 0
KEN1 081209Z 01006KT M01/M04 A3027 RMK A01 T10071043  RH  076%=      5-min Rain = 0
KEN1 081210Z 01005KT M01/M04 A3027 RMK A01 T10071043  RH  076%=      5-min Rain = 0
KEN1 081211Z 00005KT M01/M04 A3027 RMK A01 T10071043  RH  077%=      5-min Rain = 0
KEN1 081212Z 00006KT M01/M04 A3027 RMK A01 T10071042  RH  077%=      5-min Rain = 0
KEN1 081213Z 36006KT M01/M04 A3027 RMK A01 T10071042  RH  077%=      5-min Rain = 0
KEN1 081214Z 36006KT M01/M04 A3027 RMK A01 T10071043  RH  077%=      5-min Rain = 0
KEN1 081215Z 35006KT M01/M04 A3027 RMK A01 T10071042  RH  077%=      5-min Rain = 0
KEN1 081216Z 36007KT M01/M04 A3027 RMK A01 T10071042  RH  077%=      5-min Rain = 0
KEN1 081217Z 35006KT M01/M04 A3027 RMK A01 T10071043  RH  077%=      5-min Rain = 0
KEN1 081218Z 35007KT M01/M04 A3027 RMK A01 T10071043  RH  077%=      5-min Rain = 0
KEN1 081219Z 35007KT M01/M04 A3027 RMK A01 T10071043  RH  077%=      5-min Rain = 0
KEN1 081220Z 35007KT M01/M04 A3027 RMK A01 T10071043  RH  076%=      5-min Rain = 0
KEN1 081221Z 35007KT M01/M04 A3027 RMK A01 T10071043  RH  076%=      5-min Rain = 0
KEN1 081222Z 36007KT M01/M04 A3027 RMK A01 T10071043  RH  076%=      5-min Rain = 0
KEN1 081223Z 00006KT M01/M04 A3027 RMK A01 T10071043  RH  077%=      5-min Rain = 0
KEN1 081224Z 36007KT M01/M04 A3027 RMK A01 T10071043  RH  077%=      5-min Rain = 0
KEN1 081225Z 00007KT M01/M04 A3027 RMK A01 T10071043  RH  076%=      5-min Rain = 0
KEN1 081226Z 00007KT M01/M04 A3027 RMK A01 T10071044  RH  076%=      5-min Rain = 0
KEN1 081227Z 00006KT M01/M04 A3027 RMK A01 T10071044  RH  076%=      5-min Rain = 0
KEN1 081228Z 00006KT M01/M04 A3027 RMK A01 T10071043  RH  076%=      5-min Rain = 0
KEN1 081229Z 00006KT M01/M04 A3027 RMK A01 T10071043  RH  077%=      5-min Rain = 0
KEN1 081230Z 01006KT M01/M04 A3027 RMK A01 T10081044  RH  077%=      5-min Rain = 0
KEN1 081231Z 01006KT M01/M04 A3027 RMK A01 T10081044  RH  077%=      5-min Rain = 0
KEN1 081232Z 01006KT M01/M04 A3027 RMK A01 T10081043  RH  077%=      5-min Rain = 0
KEN1 081233Z 00006KT M01/M04 A3027 RMK A01 T10081043  RH  077%=      5-min Rain = 0
KEN1 081234Z 00007KT M01/M04 A3027 RMK A01 T10081043  RH  077%=      5-min Rain = 0
KEN1 081235Z 00007KT M01/M04 A3027 RMK A01 T10081044  RH  077%=      5-min Rain = 0
KEN1 081236Z 00007KT M01/M04 A3027 RMK A01 T10081043  RH  077%=      5-min Rain = 0
KEN1 081237Z 01007KT M01/M04 A3027 RMK A01 T10081044  RH  077%=      5-min Rain = 0
KEN1 081238Z 01006KT M01/M04 A3027 RMK A01 T10081044  RH  077%=      5-min Rain = 0
KEN1 081239Z 01006KT M01/M04 A3027 RMK A01 T10081044  RH  077%=      5-min Rain = 0
KEN1 081240Z 01006KT M01/M04 A3027 RMK A01 T10081044  RH  077%=      5-min Rain = 0
KEN1 081241Z 01006KT M01/M04 A3027 RMK A01 T10081044  RH  077%=      5-min Rain = 0
KEN1 081242Z 01005KT M01/M04 A3027 RMK A01 T10081044  RH  077%=      5-min Rain = 0
KEN1 081243Z 01005KT M01/M04 A3027 RMK A01 T10081044  RH  077%=      5-min Rain = 0
KEN1 081244Z 01006KT M01/M04 A3028 RMK A01 T10081044  RH  077%=      5-min Rain = 0
KEN1 081245Z 01006KT M01/M04 A3028 RMK A01 T10081044  RH  077%=      5-min Rain = 0
KEN1 081246Z 00005KT M01/M05 A3028 RMK A01 T10091045  RH  076%=      5-min Rain = 0
KEN1 081247Z 00005KT M01/M04 A3028 RMK A01 T10091044  RH  077%=      5-min Rain = 0
KEN1 081248Z 01005KT M01/M05 A3028 RMK A01 T10091045  RH  077%=      5-min Rain = 0
KEN1 081249Z 01005KT M01/M05 A3028 RMK A01 T10091045  RH  077%=      5-min Rain = 0
KEN1 081250Z 01004KT M01/M04 A3028 RMK A01 T10091044  RH  077%=      5-min Rain = 0
KEN1 081251Z 01004KT M01/M04 A3028 RMK A01 T10081044  RH  077%=      5-min Rain = 0
KEN1 081252Z 02004KT M01/M04 A3028 RMK A01 T10081044  RH  077%=      5-min Rain = 0
KEN1 081253Z 02004KT M01/M04 A3028 RMK A01 T10091044  RH  077%=      5-min Rain = 0
KEN1 081254Z 01004KT M01/M04 A3028 RMK A01 T10081044  RH  077%=      5-min Rain = 0
KEN1 081255Z 01004KT M01/M04 A3028 RMK A01 T10081043  RH  077%=      5-min Rain = 0
KEN1 081256Z 00004KT M01/M04 A3028 RMK A01 T10081043  RH  077%=      5-min Rain = 0
KEN1 081257Z 00004KT M01/M04 A3028 RMK A01 T10081043  RH  077%=      5-min Rain = 0
KEN1 081258Z 01004KT M01/M04 A3028 RMK A01 T10081043  RH  077%=      5-min Rain = 0
KEN1 081259Z 00005KT M01/M04 A3028 RMK A01 T10091043  RH  077%=      5-min Rain = 0
KEN1 081300Z 00005KT M01/M04 A3028 RMK A01 T10091044  RH  077%=      5-min Rain = 0
KEN1 081301Z 00005KT M01/M04 A3028 RMK A01 T10091044  RH  077%=      5-min Rain = 0
KEN1 081302Z 01005KT M01/M04 A3028 RMK A01 T10091044  RH  077%=      5-min Rain = 0
KEN1 081303Z 00006KT M01/M04 A3028 RMK A01 T10081044  RH  077%=      5-min Rain = 0
KEN1 081304Z 01006KT M01/M04 A3028 RMK A01 T10081044  RH  077%=      5-min Rain = 0
KEN1 081305Z 00006KT M01/M04 A3028 RMK A01 T10091044  RH  077%=      5-min Rain = 0
KEN1 081306Z 00005KT M01/M04 A3028 RMK A01 T10081044  RH  077%=      5-min Rain = 0
KEN1 081307Z 36005KT M01/M04 A3028 RMK A01 T10091044  RH  077%=      5-min Rain = 0
KEN1 081308Z 35006KT M01/M04 A3028 RMK A01 T10091043  RH  077%=      5-min Rain = 0
KEN1 081309Z 36006KT M01/M04 A3028 RMK A01 T10091044  RH  077%=      5-min Rain = 0
KEN1 081310Z 00006KT M01/M04 A3028 RMK A01 T10081044  RH  077%=      5-min Rain = 0
KEN1 081311Z 01006KT M01/M04 A3028 RMK A01 T10081044  RH  077%=      5-min Rain = 0
KEN1 081312Z 01006KT M01/M04 A3028 RMK A01 T10081044  RH  077%=      5-min Rain = 0
KEN1 081313Z 01006KT M01/M04 A3028 RMK A01 T10091044  RH  077%=      5-min Rain = 0
KEN1 081314Z 00006KT M01/M04 A3028 RMK A01 T10091044  RH  077%=      5-min Rain = 0
KEN1 081315Z 36006KT M01/M04 A3028 RMK A01 T10091044  RH  077%=      5-min Rain = 0
KEN1 081316Z 00006KT M01/M04 A3028 RMK A01 T10091044  RH  077%=      5-min Rain = 0
KEN1 081317Z 00005KT M01/M04 A3028 RMK A01 T10081044  RH  077%=      5-min Rain = 0
KEN1 081318Z 00007KT M01/M04 A3028 RMK A01 T10091044  RH  077%=      5-min Rain = 0
KEN1 081319Z 01006KT M01/M04 A3028 RMK A01 T10081044  RH  077%=      5-min Rain = 0
KEN1 081320Z 01005KT M01/M04 A3028 RMK A01 T10091044  RH  077%=      5-min Rain = 0
KEN1 081321Z 00006KT M01/M04 A3028 RMK A01 T10091044  RH  077%=      5-min Rain = 0
KEN1 081322Z 00006KT M01/M04 A3028 RMK A01 T10091044  RH  077%=      5-min Rain = 0
KEN1 081323Z 01005KT M01/M04 A3028 RMK A01 T10091044  RH  077%=      5-min Rain = 0
KEN1 081324Z 02005KT M01/M04 A3028 RMK A01 T10091044  RH  077%=      5-min Rain = 0
KEN1 081325Z 01005KT M01/M04 A3028 RMK A01 T10091044  RH  077%=      5-min Rain = 0
KEN1 081326Z 01005KT M01/M04 A3028 RMK A01 T10091044  RH  077%=      5-min Rain = 0
KEN1 081327Z 01005KT M01/M04 A3028 RMK A01 T10091044  RH  077%=      5-min Rain = 0
KEN1 081328Z 01005KT M01/M04 A3028 RMK A01 T10091044  RH  077%=      5-min Rain = 0
KEN1 081329Z 01005KT M01/M04 A3028 RMK A01 T10101044  RH  077%=      5-min Rain = 0
KEN1 081330Z 01005KT M01/M04 A3028 RMK A01 T10091044  RH  077%=      5-min Rain = 0
KEN1 081331Z 02004KT M01/M04 A3028 RMK A01 T10101044  RH  077%=      5-min Rain = 0
KEN1 081332Z 02006KT M01/M04 A3028 RMK A01 T10091044  RH  078%=      5-min Rain = 0
KEN1 081333Z 02006KT M01/M04 A3028 RMK A01 T10101044  RH  077%=      5-min Rain = 0
KEN1 081334Z 02006KT M01/M04 A3028 RMK A01 T10091044  RH  078%=      5-min Rain = 0
KEN1 081335Z 01006KT M01/M04 A3028 RMK A01 T10091044  RH  077%=      5-min Rain = 0
KEN1 081336Z 02006KT M01/M04 A3028 RMK A01 T10101044  RH  077%=      5-min Rain = 0
KEN1 081337Z 01006KT M01/M04 A3028 RMK A01 T10101044  RH  077%=      5-min Rain = 0
KEN1 081338Z 02006KT M01/M04 A3028 RMK A01 T10101044  RH  078%=      5-min Rain = 0
KEN1 081339Z 01005KT M01/M04 A3028 RMK A01 T10101044  RH  078%=      5-min Rain = 0
KEN1 081340Z 01004KT M01/M04 A3028 RMK A01 T10101044  RH  078%=      5-min Rain = 0
KEN1 081341Z 02005KT M01/M04 A3028 RMK A01 T10101044  RH  078%=      5-min Rain = 0
KEN1 081342Z 01006KT M01/M04 A3028 RMK A01 T10101044  RH  078%=      5-min Rain = 0
KEN1 081343Z 02006KT M01/M04 A3028 RMK A01 T10101044  RH  078%=      5-min Rain = 0
KEN1 081344Z 01006KT M01/M04 A3028 RMK A01 T10101044  RH  078%=      5-min Rain = 0
KEN1 081345Z 01006KT M01/M04 A3029 RMK A01 T10101044  RH  078%=      5-min Rain = 0
KEN1 081346Z 01006KT M01/M04 A3029 RMK A01 T10101044  RH  078%=      5-min Rain = 0
KEN1 081347Z 01005KT M01/M04 A3029 RMK A01 T10101044  RH  078%=      5-min Rain = 0
KEN1 081348Z 01005KT M01/M04 A3029 RMK A01 T10111044  RH  078%=      5-min Rain = 0
KEN1 081349Z 01005KT M01/M04 A3029 RMK A01 T10111044  RH  078%=      5-min Rain = 0
KEN1 081350Z 02005KT M01/M04 A3029 RMK A01 T10111044  RH  078%=      5-min Rain = 0
KEN1 081351Z 02004KT M01/M04 A3028 RMK A01 T10111044  RH  078%=      5-min Rain = 0
KEN1 081352Z 02005KT M01/M04 A3028 RMK A01 T10111044  RH  078%=      5-min Rain = 0
KEN1 081353Z 02005KT M01/M04 A3028 RMK A01 T10111044  RH  079%=      5-min Rain = 0
KEN1 081354Z 02005KT M01/M04 A3029 RMK A01 T10111044  RH  079%=      5-min Rain = 0
KEN1 081355Z 02005KT M01/M04 A3029 RMK A01 T10121044  RH  079%=      5-min Rain = 0
KEN1 081356Z 02005KT M01/M04 A3029 RMK A01 T10121044  RH  079%=      5-min Rain = 0
KEN1 081357Z 02005KT M01/M04 A3029 RMK A01 T10121044  RH  079%=      5-min Rain = 0
KEN1 081358Z 02005KT M01/M04 A3029 RMK A01 T10121044  RH  079%=      5-min Rain = 0
KEN1 081359Z 02006KT M01/M04 A3029 RMK A01 T10131044  RH  079%=      5-min Rain = 0
KEN1 081400Z 02005KT M01/M04 A3029 RMK A01 T10131044  RH  079%=      5-min Rain = 0
KEN1 081401Z 02005KT M01/M05 A3029 RMK A01 T10131045  RH  079%=      5-min Rain = 0
KEN1 081402Z 01005KT M01/M05 A3029 RMK A01 T10141045  RH  079%=      5-min Rain = 0
KEN1 081403Z 02005KT M01/M05 A3029 RMK A01 T10141046  RH  079%=      5-min Rain = 0
KEN1 081404Z 02005KT M01/M05 A3029 RMK A01 T10141045  RH  079%=      5-min Rain = 0
KEN1 081405Z 02005KT M02/M05 A3029 RMK A01 T10151046  RH  079%=      5-min Rain = 0
KEN1 081406Z 02005KT M02/M05 A3029 RMK A01 T10151046  RH  080%=      5-min Rain = 0
KEN1 081407Z 03005KT M02/M05 A3029 RMK A01 T10151046  RH  080%=      5-min Rain = 0
KEN1 081408Z 02005KT M02/M05 A3029 RMK A01 T10151045  RH  080%=      5-min Rain = 0
KEN1 081409Z 02005KT M02/M05 A3029 RMK A01 T10161046  RH  080%=      5-min Rain = 0
KEN1 081410Z 02005KT M02/M05 A3029 RMK A01 T10161046  RH  080%=      5-min Rain = 0
KEN1 081411Z 02005KT M02/M05 A3029 RMK A01 T10161046  RH  080%=      5-min Rain = 0
KEN1 081412Z 02005KT M02/M05 A3029 RMK A01 T10161046  RH  080%=      5-min Rain = 0
KEN1 081413Z 02005KT M02/M05 A3029 RMK A01 T10161046  RH  080%=      5-min Rain = 0
KEN1 081414Z 02005KT M02/M05 A3029 RMK A01 T10171047  RH  080%=      5-min Rain = 0
KEN1 081415Z 02005KT M02/M05 A3029 RMK A01 T10171046  RH  080%=      5-min Rain = 0
KEN1 081416Z 03005KT M02/M05 A3029 RMK A01 T10171047  RH  080%=      5-min Rain = 0
KEN1 081417Z 02004KT M02/M05 A3029 RMK A01 T10181047  RH  080%=      5-min Rain = 0
KEN1 081418Z 02004KT M02/M05 A3029 RMK A01 T10181047  RH  081%=      5-min Rain = 0
KEN1 081419Z 02004KT M02/M05 A3029 RMK A01 T10181047  RH  081%=      5-min Rain = 0
KEN1 081420Z 02004KT M02/M05 A3029 RMK A01 T10181047  RH  081%=      5-min Rain = 0
KEN1 081421Z 03004KT M02/M05 A3029 RMK A01 T10191047  RH  081%=      5-min Rain = 0
KEN1 081422Z 02004KT M02/M05 A3029 RMK A01 T10191047  RH  081%=      5-min Rain = 0
KEN1 081423Z 02004KT M02/M05 A3029 RMK A01 T10201048  RH  081%=      5-min Rain = 0
KEN1 081424Z 02004KT M02/M05 A3029 RMK A01 T10201047  RH  081%=      5-min Rain = 0
KEN1 081425Z 02004KT M02/M05 A3029 RMK A01 T10201047  RH  082%=      5-min Rain = 0
KEN1 081426Z 02004KT M02/M05 A3029 RMK A01 T10201047  RH  082%=      5-min Rain = 0
KEN1 081427Z 02004KT M02/M05 A3029 RMK A01 T10201047  RH  082%=      5-min Rain = 0
KEN1 081428Z 03004KT M02/M05 A3029 RMK A01 T10211047  RH  082%=      5-min Rain = 0
KEN1 081429Z 03004KT M02/M05 A3029 RMK A01 T10211047  RH  082%=      5-min Rain = 0
KEN1 081430Z 02004KT M02/M05 A3029 RMK A01 T10211047  RH  082%=      5-min Rain = 0
KEN1 081431Z 02004KT M02/M05 A3029 RMK A01 T10211047  RH  082%=      5-min Rain = 0
KEN1 081432Z 02004KT M02/M05 A3029 RMK A01 T10211047  RH  082%=      5-min Rain = 0
KEN1 081433Z 01004KT M02/M05 A3029 RMK A01 T10211047  RH  083%=      5-min Rain = 0
KEN1 081434Z 01004KT M02/M05 A3029 RMK A01 T10211047  RH  083%=      5-min Rain = 0
KEN1 081435Z 01004KT M02/M05 A3029 RMK A01 T10211047  RH  083%=      5-min Rain = 0
KEN1 081436Z 01004KT M02/M05 A3029 RMK A01 T10211047  RH  083%=      5-min Rain = 0
KEN1 081437Z 01004KT M02/M05 A3029 RMK A01 T10221047  RH  083%=      5-min Rain = 0
KEN1 081438Z 01004KT M02/M05 A3029 RMK A01 T10221047  RH  083%=      5-min Rain = 0
KEN1 081439Z 01004KT M02/M05 A3029 RMK A01 T10221047  RH  083%=      5-min Rain = 0
KEN1 081440Z 01004KT M02/M05 A3029 RMK A01 T10221047  RH  083%=      5-min Rain = 0
KEN1 081441Z 01005KT M02/M05 A3029 RMK A01 T10221046  RH  083%=      5-min Rain = 0
KEN1 081442Z 01005KT M02/M05 A3029 RMK A01 T10221046  RH  083%=      5-min Rain = 0
KEN1 081443Z 01005KT M02/M05 A3029 RMK A01 T10221046  RH  083%=      5-min Rain = 0
KEN1 081444Z 02004KT M02/M05 A3029 RMK A01 T10221047  RH  083%=      5-min Rain = 0
KEN1 081445Z 02004KT M02/M05 A3029 RMK A01 T10221047  RH  083%=      5-min Rain = 0
KEN1 081446Z 02004KT M02/M05 A3029 RMK A01 T10221047  RH  083%=      5-min Rain = 0
KEN1 081447Z 03004KT M02/M05 A3029 RMK A01 T10221047  RH  083%=      5-min Rain = 0
KEN1 081448Z 03004KT M02/M05 A3029 RMK A01 T10221046  RH  083%=      5-min Rain = 0
KEN1 081449Z 03003KT M02/M05 A3029 RMK A01 T10221046  RH  083%=      5-min Rain = 0
KEN1 081450Z 03004KT M02/M05 A3029 RMK A01 T10221046  RH  084%=      5-min Rain = 0
KEN1 081451Z 03003KT M02/M05 A3029 RMK A01 T10221046  RH  084%=      5-min Rain = 0
KEN1 081452Z 03003KT M02/M05 A3029 RMK A01 T10221046  RH  084%=      5-min Rain = 0
KEN1 081453Z 03003KT M02/M05 A3029 RMK A01 T10221046  RH  084%=      5-min Rain = 0
KEN1 081454Z 03003KT M02/M05 A3029 RMK A01 T10221046  RH  084%=      5-min Rain = 0
KEN1 081455Z 03003KT M02/M05 A3029 RMK A01 T10231047  RH  084%=      5-min Rain = 0
KEN1 081456Z 03003KT M02/M05 A3029 RMK A01 T10231047  RH  084%=      5-min Rain = 0
KEN1 081457Z 03003KT M02/M05 A3029 RMK A01 T10231046  RH  084%=      5-min Rain = 0
KEN1 081458Z 03003KT M02/M05 A3029 RMK A01 T10231046  RH  084%=      5-min Rain = 0
KEN1 081459Z 03002KT M02/M05 A3029 RMK A01 T10231046  RH  084%=      5-min Rain = 0
KEN1 081500Z 02002KT M02/M05 A303 RMK A01 T10231046  RH  084%=      5-min Rain = 0
KEN1 081501Z 02002KT M02/M05 A303 RMK A01 T10231046  RH  084%=      5-min Rain = 0
KEN1 081502Z 02002KT M02/M05 A303 RMK A01 T10231046  RH  084%=      5-min Rain = 0
KEN1 081503Z 02002KT M02/M05 A303 RMK A01 T10231046  RH  084%=      5-min Rain = 0
KEN1 081504Z 03002KT M02/M05 A303 RMK A01 T10231046  RH  084%=      5-min Rain = 0
KEN1 081505Z 03002KT M02/M05 A303 RMK A01 T10231046  RH  084%=      5-min Rain = 0
KEN1 081506Z 04002KT M02/M05 A303 RMK A01 T10231046  RH  084%=      5-min Rain = 0
KEN1 081507Z 04002KT M02/M05 A303 RMK A01 T10231046  RH  084%=      5-min Rain = 0
KEN1 081508Z 04002KT M02/M05 A303 RMK A01 T10231045  RH  084%=      5-min Rain = 0
KEN1 081509Z 04002KT M02/M05 A303 RMK A01 T10231045  RH  085%=      5-min Rain = 0
KEN1 081510Z 04002KT M02/M05 A303 RMK A01 T10231045  RH  085%=      5-min Rain = 0
KEN1 081511Z 04002KT M02/M05 A303 RMK A01 T10231045  RH  085%=      5-min Rain = 0
KEN1 081512Z 04002KT M02/M04 A303 RMK A01 T10231044  RH  085%=      5-min Rain = 0
KEN1 081513Z 04002KT M02/M04 A303 RMK A01 T10221044  RH  085%=      5-min Rain = 0
KEN1 081514Z 04002KT M02/M04 A303 RMK A01 T10221044  RH  085%=      5-min Rain = 0
KEN1 081515Z 05002KT M02/M04 A303 RMK A01 T10221044  RH  085%=      5-min Rain = 0
KEN1 081516Z 05002KT M02/M04 A303 RMK A01 T10211044  RH  085%=      5-min Rain = 0
KEN1 081517Z 04002KT M02/M04 A303 RMK A01 T10211044  RH  084%=      5-min Rain = 0
KEN1 081518Z 05002KT M02/M04 A303 RMK A01 T10211044  RH  084%=      5-min Rain = 0
KEN1 081519Z 04002KT M02/M04 A303 RMK A01 T10201043  RH  084%=      5-min Rain = 0
KEN1 081520Z 05002KT M02/M04 A303 RMK A01 T10201043  RH  084%=      5-min Rain = 0
KEN1 081521Z 05002KT M02/M04 A303 RMK A01 T10191043  RH  084%=      5-min Rain = 0
KEN1 081522Z 05002KT M02/M04 A303 RMK A01 T10181042  RH  084%=      5-min Rain = 0
KEN1 081523Z 05002KT M02/M04 A303 RMK A01 T10181042  RH  083%=      5-min Rain = 0
KEN1 081524Z 05003KT M02/M04 A303 RMK A01 T10171042  RH  083%=      5-min Rain = 0
KEN1 081525Z 05002KT M02/M04 A303 RMK A01 T10171042  RH  083%=      5-min Rain = 0
KEN1 081526Z 06003KT M02/M04 A303 RMK A01 T10171043  RH  082%=      5-min Rain = 0
KEN1 081527Z 06002KT M02/M04 A303 RMK A01 T10161043  RH  082%=      5-min Rain = 0
KEN1 081528Z 07002KT M02/M04 A303 RMK A01 T10161043  RH  082%=      5-min Rain = 0
KEN1 081529Z 05004KT M02/M04 A303 RMK A01 T10151042  RH  082%=      5-min Rain = 0
KEN1 081530Z 06003KT M02/M04 A303 RMK A01 T10151043  RH  081%=      5-min Rain = 0
KEN1 081531Z 06003KT M02/M04 A303 RMK A01 T10151043  RH  081%=      5-min Rain = 0
KEN1 081532Z 07003KT M02/M04 A303 RMK A01 T10151043  RH  081%=      5-min Rain = 0
KEN1 081533Z 06003KT M02/M04 A303 RMK A01 T10151043  RH  081%=      5-min Rain = 0
KEN1 081534Z 06003KT M01/M04 A303 RMK A01 T10141043  RH  081%=      5-min Rain = 0
KEN1 081535Z 05004KT M01/M04 A303 RMK A01 T10141043  RH  081%=      5-min Rain = 0
KEN1 081536Z 05003KT M01/M04 A303 RMK A01 T10141044  RH  080%=      5-min Rain = 0
KEN1 081537Z 06004KT M01/M04 A303 RMK A01 T10131044  RH  080%=      5-min Rain = 0
KEN1 081538Z 06004KT M01/M04 A303 RMK A01 T10131044  RH  080%=      5-min Rain = 0
KEN1 081539Z 06004KT M01/M05 A303 RMK A01 T10131045  RH  079%=      5-min Rain = 0
KEN1 081540Z 06003KT M01/M05 A303 RMK A01 T10131045  RH  079%=      5-min Rain = 0
KEN1 081541Z 06004KT M01/M05 A303 RMK A01 T10121045  RH  079%=      5-min Rain = 0
KEN1 081542Z 05004KT M01/M05 A303 RMK A01 T10121045  RH  078%=      5-min Rain = 0
KEN1 081543Z 05003KT M01/M05 A303 RMK A01 T10121045  RH  078%=      5-min Rain = 0
KEN1 081544Z 05004KT M01/M05 A303 RMK A01 T10121045  RH  078%=      5-min Rain = 0
KEN1 081545Z 06003KT M01/M05 A303 RMK A01 T10121046  RH  078%=      5-min Rain = 0
KEN1 081546Z 06004KT M01/M05 A303 RMK A01 T10111045  RH  078%=      5-min Rain = 0
KEN1 081547Z 06005KT M01/M05 A303 RMK A01 T10111045  RH  078%=      5-min Rain = 0
KEN1 081548Z 06004KT M01/M05 A303 RMK A01 T10111045  RH  077%=      5-min Rain = 0
KEN1 081549Z 06004KT M01/M05 A303 RMK A01 T10111046  RH  077%=      5-min Rain = 0
KEN1 081550Z 06004KT M01/M05 A303 RMK A01 T10111046  RH  077%=      5-min Rain = 0
KEN1 081551Z 06004KT M01/M05 A303 RMK A01 T10111046  RH  077%=      5-min Rain = 0
KEN1 081552Z 06003KT M01/M05 A303 RMK A01 T10101046  RH  077%=      5-min Rain = 0
KEN1 081553Z 07003KT M01/M05 A303 RMK A01 T10101045  RH  077%=      5-min Rain = 0
KEN1 081554Z 07004KT M01/M04 A303 RMK A01 T10091044  RH  077%=      5-min Rain = 0
KEN1 081555Z 07004KT M01/M05 A303 RMK A01 T10091045  RH  076%=      5-min Rain = 0
KEN1 081556Z 06004KT M01/M05 A303 RMK A01 T10081045  RH  076%=      5-min Rain = 0
KEN1 081557Z 06004KT M01/M05 A303 RMK A01 T10081045  RH  076%=      5-min Rain = 0
KEN1 081558Z 05004KT M01/M05 A303 RMK A01 T10081046  RH  076%=      5-min Rain = 0
KEN1 081559Z 04005KT M01/M05 A303 RMK A01 T10071045  RH  075%=      5-min Rain = 0
KEN1 081600Z 04005KT M01/M05 A303 RMK A01 T10071045  RH  075%=      5-min Rain = 0
KEN1 081601Z 05005KT M01/M05 A303 RMK A01 T10071046  RH  075%=      5-min Rain = 0
KEN1 081602Z 05004KT M01/M05 A303 RMK A01 T10071046  RH  075%=      5-min Rain = 0
KEN1 081603Z 05004KT M01/M05 A303 RMK A01 T10071046  RH  075%=      5-min Rain = 0
KEN1 081604Z 04004KT M01/M05 A303 RMK A01 T10071046  RH  075%=      5-min Rain = 0
KEN1 081605Z 05004KT M01/M05 A303 RMK A01 T10061045  RH  075%=      5-min Rain = 0
KEN1 081606Z 05004KT M01/M05 A303 RMK A01 T10061045  RH  075%=      5-min Rain = 0
KEN1 081607Z 06004KT M01/M05 A303 RMK A01 T10061046  RH  074%=      5-min Rain = 0
KEN1 081608Z 07004KT M01/M05 A303 RMK A01 T10061046  RH  074%=      5-min Rain = 0
KEN1 081609Z 06004KT M01/M05 A303 RMK A01 T10061046  RH  074%=      5-min Rain = 0
KEN1 081610Z 02003KT M01/M05 A303 RMK A01 T10051045  RH  075%=      5-min Rain = 0
KEN1 081611Z 05003KT M00/M04 A303 RMK A01 T10041044  RH  074%=      5-min Rain = 0
KEN1 081612Z 03004KT M00/M05 A303 RMK A01 T10041045  RH  074%=      5-min Rain = 0
KEN1 081613Z 03004KT M00/M05 A303 RMK A01 T10041046  RH  073%=      5-min Rain = 0
KEN1 081614Z 03003KT M01/M05 A3031 RMK A01 T10051047  RH  073%=      5-min Rain = 0
KEN1 081615Z 05004KT M01/M05 A3031 RMK A01 T10051046  RH  074%=      5-min Rain = 0
KEN1 081616Z 04003KT M01/M05 A3031 RMK A01 T10051047  RH  074%=      5-min Rain = 0
KEN1 081617Z 03003KT M01/M05 A3031 RMK A01 T10051047  RH  074%=      5-min Rain = 0
KEN1 081618Z 04002KT M01/M05 A3031 RMK A01 T10051047  RH  073%=      5-min Rain = 0
KEN1 081619Z 02002KT M01/M05 A3031 RMK A01 T10051047  RH  074%=      5-min Rain = 0
KEN1 081620Z 01002KT M01/M05 A3031 RMK A01 T10051046  RH  074%=      5-min Rain = 0
KEN1 081621Z 03002KT M00/M05 A3031 RMK A01 T10041045  RH  074%=      5-min Rain = 0
KEN1 081622Z 06002KT M00/M04 A3031 RMK A01 T10031044  RH  073%=      5-min Rain = 0
KEN1 081623Z 08002KT M00/M04 A3031 RMK A01 T10011044  RH  073%=      5-min Rain = 0
KEN1 081624Z 09001KT M00/M05 A3031 RMK A01 T10011045  RH  072%=      5-min Rain = 0
KEN1 081625Z 06002KT 00/05 A3031 RMK A01 T00000-45  RH  072%=      5-min Rain = 0
KEN1 081626Z 05002KT 00/M05 A3031 RMK A01 T00011045  RH  071%=      5-min Rain = 0
KEN1 081627Z 04002KT 00/M05 A3031 RMK A01 T00011046  RH  071%=      5-min Rain = 0
KEN1 081628Z 05002KT 00/05 A3031 RMK A01 T00000-46  RH  071%=      5-min Rain = 0
KEN1 081629Z 07002KT 00/05 A3031 RMK A01 T00000-46  RH  071%=      5-min Rain = 0
KEN1 081630Z 05002KT 00/05 A3031 RMK A01 T00000-46  RH  071%=      5-min Rain = 0
KEN1 081631Z 05002KT 00/05 A3031 RMK A01 T00000-46  RH  071%=      5-min Rain = 0
KEN1 081632Z 03001KT 00/05 A3032 RMK A01 T00000-46  RH  071%=      5-min Rain = 0
KEN1 081633Z 02001KT 00/05 A3032 RMK A01 T00000-46  RH  071%=      5-min Rain = 0
KEN1 081634Z 05001KT 00/M05 A3032 RMK A01 T00011046  RH  071%=      5-min Rain = 0
KEN1 081635Z 35000KT 00/M05 A3032 RMK A01 T00021046  RH  070%=      5-min Rain = 0
KEN1 081636Z 00000KT 00/M05 A3032 RMK A01 T00021047  RH  070%=      5-min Rain = 0
KEN1 081637Z 26000KT 00/M05 A3032 RMK A01 T00031047  RH  070%=      5-min Rain = 0
KEN1 081638Z 20000KT 00/M05 A3032 RMK A01 T00031046  RH  070%=      5-min Rain = 0
KEN1 081639Z 14001KT 00/M05 A3032 RMK A01 T00041045  RH  070%=      5-min Rain = 0
KEN1 081640Z 14001KT 01/M05 A3032 RMK A01 T00051046  RH  069%=      5-min Rain = 0
KEN1 081641Z 13002KT 01/M05 A3032 RMK A01 T00061045  RH  069%=      5-min Rain = 0
KEN1 081642Z 15002KT 01/M05 A3032 RMK A01 T00071045  RH  068%=      5-min Rain = 0
KEN1 081643Z 16001KT 01/M05 A3032 RMK A01 T00081045  RH  068%=      5-min Rain = 0
KEN1 081644Z 19000KT 01/M05 A3032 RMK A01 T00081045  RH  067%=      5-min Rain = 0
KEN1 081645Z 14002KT 01/M05 A3032 RMK A01 T00091045  RH  067%=      5-min Rain = 0
KEN1 081646Z 13002KT 01/M04 A3032 RMK A01 T00111043  RH  067%=      5-min Rain = 0
KEN1 081647Z 14001KT 01/M04 A3032 RMK A01 T00131044  RH  066%=      5-min Rain = 0
KEN1 081648Z 15001KT 01/M05 A3032 RMK A01 T00141045  RH  065%=      5-min Rain = 0
KEN1 081649Z 15000KT 02/M04 A3032 RMK A01 T00151044  RH  065%=      5-min Rain = 0
KEN1 081650Z 14000KT 02/M04 A3032 RMK A01 T00171042  RH  065%=      5-min Rain = 0
KEN1 081651Z 14002KT 02/M04 A3032 RMK A01 T00181043  RH  064%=      5-min Rain = 0
KEN1 081652Z 11004KT 02/M04 A3032 RMK A01 T00181043  RH  064%=      5-min Rain = 0
KEN1 081653Z 15003KT 02/M04 A3031 RMK A01 T00171044  RH  064%=      5-min Rain = 0
KEN1 081654Z 15003KT 02/M04 A3031 RMK A01 T00161044  RH  064%=      5-min Rain = 0
KEN1 081655Z 13003KT 01/M05 A3031 RMK A01 T00141045  RH  065%=      5-min Rain = 0
KEN1 081656Z 15002KT 01/M05 A3031 RMK A01 T00141045  RH  065%=      5-min Rain = 0
KEN1 081657Z 16003KT 02/M04 A3031 RMK A01 T00151043  RH  065%=      5-min Rain = 0
KEN1 081658Z 19002KT 02/M04 A3031 RMK A01 T00161043  RH  065%=      5-min Rain = 0
KEN1 081659Z 20002KT 02/M04 A3031 RMK A01 T00161042  RH  065%=      5-min Rain = 0
KEN1 081700Z 20002KT 02/M04 A3031 RMK A01 T00161042  RH  065%=      5-min Rain = 0
KEN1 081701Z 21001KT 02/M04 A3031 RMK A01 T00151042  RH  065%=      5-min Rain = 0
KEN1 081702Z 22000KT 02/M04 A3031 RMK A01 T00171041  RH  065%=      5-min Rain = 0
KEN1 081703Z 23001KT 02/M04 A3031 RMK A01 T00191041  RH  065%=      5-min Rain = 0
KEN1 081704Z 19001KT 02/M04 A3031 RMK A01 T00191042  RH  064%=      5-min Rain = 0
KEN1 081705Z 22002KT 02/M04 A3031 RMK A01 T00191043  RH  064%=      5-min Rain = 0
KEN1 081706Z 17002KT 02/M04 A3031 RMK A01 T00171043  RH  064%=      5-min Rain = 0
KEN1 081707Z 16003KT 02/M04 A3031 RMK A01 T00171042  RH  065%=      5-min Rain = 0
KEN1 081708Z 17003KT 02/M04 A3031 RMK A01 T00191040  RH  065%=      5-min Rain = 0
KEN1 081709Z 18003KT 02/M04 A3031 RMK A01 T00201041  RH  064%=      5-min Rain = 0
KEN1 081710Z 16003KT 02/M04 A3031 RMK A01 T00201041  RH  064%=      5-min Rain = 0
KEN1 081711Z 11003KT 02/M04 A3031 RMK A01 T00201042  RH  064%=      5-min Rain = 0
KEN1 081712Z 08002KT 02/M04 A3031 RMK A01 T00211041  RH  064%=      5-min Rain = 0
KEN1 081713Z 11002KT 02/M04 A3031 RMK A01 T00221041  RH  063%=      5-min Rain = 0
KEN1 081714Z 14001KT 02/M04 A3031 RMK A01 T00221041  RH  063%=      5-min Rain = 0
KEN1 081715Z 10002KT 02/M04 A3031 RMK A01 T00221041  RH  063%=      5-min Rain = 0
KEN1 081716Z 07002KT 02/M04 A3031 RMK A01 T00231040  RH  063%=      5-min Rain = 0
KEN1 081717Z 10002KT 02/M04 A3031 RMK A01 T00241039  RH  063%=      5-min Rain = 0
KEN1 081718Z 09002KT 03/M04 A3031 RMK A01 T00251039  RH  062%=      5-min Rain = 0
KEN1 081719Z 10001KT 03/M04 A3031 RMK A01 T00251040  RH  062%=      5-min Rain = 0
KEN1 081720Z 09000KT 02/M04 A3031 RMK A01 T00231041  RH  063%=      5-min Rain = 0
KEN1 081721Z 07001KT 02/M04 A3031 RMK A01 T00241039  RH  063%=      5-min Rain = 0
KEN1 081722Z 08000KT 03/M04 A3031 RMK A01 T00251040  RH  062%=      5-min Rain = 0
KEN1 081723Z 32000KT 03/M04 A3031 RMK A01 T00251040  RH  062%=      5-min Rain = 0
KEN1 081724Z 31001KT 03/M04 A3031 RMK A01 T00261040  RH  062%=      5-min Rain = 0
KEN1 081725Z 32001KT 03/M04 A3031 RMK A01 T00251041  RH  061%=      5-min Rain = 0
KEN1 081726Z 32001KT 02/M04 A3031 RMK A01 T00241042  RH  062%=      5-min Rain = 0
KEN1 081727Z 32001KT 02/M04 A3031 RMK A01 T00241041  RH  062%=      5-min Rain = 0
KEN1 081728Z 30001KT 02/M04 A303 RMK A01 T00241040  RH  063%=      5-min Rain = 0
KEN1 081729Z 28001KT 03/M04 A303 RMK A01 T00251039  RH  063%=      5-min Rain = 0
KEN1 081730Z 23001KT 03/M04 A303 RMK A01 T00261039  RH  062%=      5-min Rain = 0
KEN1 081731Z 25002KT 03/M04 A303 RMK A01 T00261040  RH  062%=      5-min Rain = 0
KEN1 081732Z 27002KT 03/M04 A3031 RMK A01 T00251040  RH  062%=      5-min Rain = 0
KEN1 081733Z 30003KT 03/M04 A3031 RMK A01 T00251039  RH  063%=      5-min Rain = 0
KEN1 081734Z 28002KT 03/M04 A3031 RMK A01 T00261039  RH  062%=      5-min Rain = 0
KEN1 081735Z 27001KT 03/M04 A3031 RMK A01 T00261039  RH  062%=      5-min Rain = 0
KEN1 081736Z 30002KT 03/M04 A3031 RMK A01 T00271038  RH  062%=      5-min Rain = 0
KEN1 081737Z 32003KT 03/M04 A303 RMK A01 T00281039  RH  061%=      5-min Rain = 0
KEN1 081738Z 30001KT 03/M04 A303 RMK A01 T00261041  RH  061%=      5-min Rain = 0
KEN1 081739Z 34001KT 03/M04 A303 RMK A01 T00261040  RH  062%=      5-min Rain = 0
KEN1 081740Z 29003KT 03/M04 A3031 RMK A01 T00271039  RH  062%=      5-min Rain = 0
KEN1 081741Z 31002KT 03/M04 A3031 RMK A01 T00281039  RH  062%=      5-min Rain = 0
KEN1 081742Z 27002KT 03/M04 A3031 RMK A01 T00271040  RH  061%=      5-min Rain = 0
KEN1 081743Z 22002KT 03/M04 A3031 RMK A01 T00281038  RH  062%=      5-min Rain = 0
KEN1 081744Z 21001KT 03/M04 A3031 RMK A01 T00291039  RH  061%=      5-min Rain = 0
KEN1 081745Z 09001KT 03/M04 A3031 RMK A01 T00311038  RH  061%=      5-min Rain = 0
KEN1 081746Z 02001KT 03/M04 A3031 RMK A01 T00341036  RH  060%=      5-min Rain = 0
KEN1 081747Z 28003KT 04/M04 A3031 RMK A01 T00351037  RH  059%=      5-min Rain = 0
KEN1 081748Z 29005KT 04/M04 A3031 RMK A01 T00361037  RH  059%=      5-min Rain = 0
KEN1 081749Z 28002KT 03/M04 A3031 RMK A01 T00331040  RH  059%=      5-min Rain = 0
KEN1 081750Z 27004KT 03/M04 A3031 RMK A01 T00321039  RH  059%=      5-min Rain = 0
KEN1 081751Z 28005KT 03/M04 A3031 RMK A01 T00331037  RH  060%=      5-min Rain = 0
KEN1 081752Z 27005KT 03/M04 A3031 RMK A01 T00341037  RH  060%=      5-min Rain = 0
KEN1 081753Z 27004KT 03/M04 A3031 RMK A01 T00341038  RH  059%=      5-min Rain = 0
KEN1 081754Z 26003KT 03/M04 A3031 RMK A01 T00321040  RH  059%=      5-min Rain = 0
KEN1 081755Z 27004KT 03/M04 A3031 RMK A01 T00311040  RH  060%=      5-min Rain = 0
KEN1 081756Z 27004KT 03/M04 A3031 RMK A01 T00301040  RH  060%=      5-min Rain = 0
KEN1 081757Z 26004KT 03/M04 A3031 RMK A01 T00291041  RH  060%=      5-min Rain = 0
KEN1 081758Z 26002KT 03/M04 A3031 RMK A01 T00291040  RH  060%=      5-min Rain = 0
KEN1 081759Z 30001KT 03/M04 A303 RMK A01 T00291040  RH  060%=      5-min Rain = 0
KEN1 081800Z 32003KT 03/M04 A303 RMK A01 T00301039  RH  060%=      5-min Rain = 0
KEN1 081801Z 33004KT 03/M04 A303 RMK A01 T00311040  RH  060%=      5-min Rain = 0
KEN1 081802Z 33005KT 03/M04 A303 RMK A01 T00311039  RH  060%=      5-min Rain = 0
KEN1 081803Z 32005KT 03/M04 A303 RMK A01 T00311040  RH  060%=      5-min Rain = 0
KEN1 081804Z 33004KT 03/M04 A303 RMK A01 T00301041  RH  060%=      5-min Rain = 0
KEN1 081805Z 31005KT 03/M04 A303 RMK A01 T00301040  RH  060%=      5-min Rain = 0
KEN1 081806Z 30005KT 03/M04 A303 RMK A01 T00321038  RH  060%=      5-min Rain = 0
KEN1 081807Z 30003KT 03/M04 A303 RMK A01 T00321039  RH  060%=      5-min Rain = 0
KEN1 081808Z 31003KT 03/M04 A303 RMK A01 T00311041  RH  059%=      5-min Rain = 0
KEN1 081809Z 31001KT 03/M04 A303 RMK A01 T00301042  RH  059%=      5-min Rain = 0
KEN1 081810Z 32003KT 03/M04 A303 RMK A01 T00301041  RH  059%=      5-min Rain = 0
KEN1 081811Z 35001KT 03/M04 A303 RMK A01 T00311039  RH  060%=      5-min Rain = 0
KEN1 081812Z 34001KT 03/M04 A303 RMK A01 T00321039  RH  059%=      5-min Rain = 0
KEN1 081813Z 35001KT 03/M04 A303 RMK A01 T00341038  RH  059%=      5-min Rain = 0
KEN1 081814Z 34002KT 04/M04 A303 RMK A01 T00351039  RH  058%=      5-min Rain = 0
KEN1 081815Z 02002KT 03/M04 A303 RMK A01 T00341041  RH  058%=      5-min Rain = 0
KEN1 081816Z 07002KT 03/M04 A3029 RMK A01 T00331041  RH  058%=      5-min Rain = 0
KEN1 081817Z 07000KT 03/M04 A3029 RMK A01 T00341040  RH  059%=      5-min Rain = 0
KEN1 081818Z 06001KT 03/M04 A3029 RMK A01 T00341039  RH  059%=      5-min Rain = 0
KEN1 081819Z 00000KT 04/M04 A3029 RMK A01 T00361037  RH  059%=      5-min Rain = 0
KEN1 081820Z 28002KT 04/M04 A3029 RMK A01 T00381036  RH  058%=      5-min Rain = 0
KEN1 081821Z 26003KT 04/M04 A3029 RMK A01 T00401036  RH  058%=      5-min Rain = 0
KEN1 081822Z 30003KT 04/M04 A3029 RMK A01 T00401037  RH  057%=      5-min Rain = 0
KEN1 081823Z 25003KT 04/M04 A3029 RMK A01 T00381038  RH  057%=      5-min Rain = 0
KEN1 081824Z 28003KT 04/M04 A3029 RMK A01 T00391038  RH  057%=      5-min Rain = 0
KEN1 081825Z 30003KT 04/M04 A3029 RMK A01 T00401037  RH  057%=      5-min Rain = 0
KEN1 081826Z 31004KT 04/M04 A3029 RMK A01 T00411038  RH  057%=      5-min Rain = 0
KEN1 081827Z 31005KT 04/M04 A3029 RMK A01 T00401040  RH  056%=      5-min Rain = 0
KEN1 081828Z 34004KT 04/M04 A3029 RMK A01 T00381041  RH  056%=      5-min Rain = 0
KEN1 081829Z 33003KT 04/M04 A3029 RMK A01 T00371042  RH  056%=      5-min Rain = 0
KEN1 081830Z 35004KT 04/M04 A3029 RMK A01 T00371041  RH  057%=      5-min Rain = 0
KEN1 081831Z 33004KT 04/M04 A3029 RMK A01 T00371041  RH  057%=      5-min Rain = 0
KEN1 081832Z 32004KT 04/M04 A3028 RMK A01 T00391040  RH  056%=      5-min Rain = 0
KEN1 081833Z 28003KT 04/M04 A3028 RMK A01 T00401041  RH  055%=      5-min Rain = 0
KEN1 081834Z 29004KT 04/M04 A3028 RMK A01 T00401043  RH  054%=      5-min Rain = 0
KEN1 081835Z 29003KT 04/M04 A3028 RMK A01 T00411043  RH  055%=      5-min Rain = 0
KEN1 081836Z 29004KT 04/M04 A3028 RMK A01 T00431041  RH  055%=      5-min Rain = 0
KEN1 081837Z 33003KT 04/M04 A3028 RMK A01 T00411044  RH  054%=      5-min Rain = 0
KEN1 081838Z 00001KT 04/M05 A3028 RMK A01 T00401045  RH  054%=      5-min Rain = 0
KEN1 081839Z 31003KT 04/M04 A3028 RMK A01 T00391044  RH  054%=      5-min Rain = 0
KEN1 081840Z 31003KT 04/M04 A3028 RMK A01 T00401044  RH  054%=      5-min Rain = 0
KEN1 081841Z 31002KT 04/M05 A3028 RMK A01 T00391045  RH  054%=      5-min Rain = 0
KEN1 081842Z 31000KT 04/M05 A3028 RMK A01 T00371046  RH  055%=      5-min Rain = 0
KEN1 081843Z 00000KT 04/M05 A3028 RMK A01 T00371045  RH  055%=      5-min Rain = 0
KEN1 081844Z 15001KT 04/M04 A3028 RMK A01 T00391044  RH  055%=      5-min Rain = 0
KEN1 081845Z 11001KT 04/M04 A3028 RMK A01 T00411043  RH  054%=      5-min Rain = 0
KEN1 081846Z 13001KT 04/M04 A3027 RMK A01 T00431043  RH  054%=      5-min Rain = 0
KEN1 081847Z 32000KT 05/M04 A3027 RMK A01 T00451042  RH  053%=      5-min Rain = 0
KEN1 081848Z 30003KT 05/M04 A3027 RMK A01 T00461043  RH  052%=      5-min Rain = 0
KEN1 081849Z 31003KT 04/M05 A3027 RMK A01 T00441047  RH  051%=      5-min Rain = 0
KEN1 081850Z 34001KT 04/M05 A3027 RMK A01 T00421051  RH  051%=      5-min Rain = 0
KEN1 081851Z 34001KT 04/M05 A3027 RMK A01 T00421050  RH  051%=      5-min Rain = 0
KEN1 081852Z 03000KT 04/M05 A3027 RMK A01 T00411051  RH  051%=      5-min Rain = 0
KEN1 081853Z 24000KT 04/M05 A3027 RMK A01 T00411051  RH  051%=      5-min Rain = 0
KEN1 081854Z 21000KT 04/M05 A3026 RMK A01 T00431051  RH  051%=      5-min Rain = 0
KEN1 081855Z 24001KT 05/M05 A3026 RMK A01 T00461048  RH  050%=      5-min Rain = 0
KEN1 081856Z 26002KT 05/M05 A3026 RMK A01 T00481047  RH  050%=      5-min Rain = 0
KEN1 081857Z 28002KT 05/M05 A3026 RMK A01 T00461048  RH  051%=      5-min Rain = 0
KEN1 081858Z 30002KT 05/M05 A3026 RMK A01 T00451046  RH  052%=      5-min Rain = 0
KEN1 081859Z 28003KT 05/M05 A3026 RMK A01 T00451045  RH  052%=      5-min Rain = 0
KEN1 081900Z 28003KT 05/M05 A3026 RMK A01 T00451046  RH  052%=      5-min Rain = 0
KEN1 081901Z 28002KT 04/M05 A3026 RMK A01 T00431047  RH  052%=      5-min Rain = 0
KEN1 081902Z 24001KT 04/M05 A3026 RMK A01 T00431047  RH  052%=      5-min Rain = 0
KEN1 081903Z 26002KT 04/M05 A3026 RMK A01 T00441047  RH  052%=      5-min Rain = 0
KEN1 081904Z 25001KT 05/M05 A3026 RMK A01 T00461047  RH  051%=      5-min Rain = 0
KEN1 081905Z 24001KT 05/M05 A3026 RMK A01 T00481046  RH  051%=      5-min Rain = 0
KEN1 081906Z 20001KT 05/M04 A3025 RMK A01 T00491044  RH  051%=      5-min Rain = 0
KEN1 081907Z 19001KT 05/M05 A3025 RMK A01 T00501046  RH  050%=      5-min Rain = 0
KEN1 081908Z 19001KT 05/M05 A3025 RMK A01 T00511046  RH  050%=      5-min Rain = 0
KEN1 081909Z 00000KT 05/M05 A3025 RMK A01 T00501047  RH  049%=      5-min Rain = 0
KEN1 081910Z 19000KT 05/M05 A3025 RMK A01 T00511048  RH  049%=      5-min Rain = 0
KEN1 081911Z 15000KT 05/M05 A3025 RMK A01 T00531048  RH  048%=      5-min Rain = 0
KEN1 081912Z 23003KT 05/M05 A3025 RMK A01 T00531047  RH  048%=      5-min Rain = 0
KEN1 081913Z 24005KT 05/M05 A3025 RMK A01 T00531047  RH  049%=      5-min Rain = 0
KEN1 081914Z 22004KT 05/M05 A3025 RMK A01 T00511048  RH  049%=      5-min Rain = 0
KEN1 081915Z 21002KT 05/M05 A3025 RMK A01 T00491048  RH  049%=      5-min Rain = 0
KEN1 081916Z 17002KT 05/M05 A3025 RMK A01 T00481049  RH  050%=      5-min Rain = 0
KEN1 081917Z 15003KT 05/M05 A3025 RMK A01 T00481049  RH  050%=      5-min Rain = 0
KEN1 081918Z 20002KT 05/M05 A3025 RMK A01 T00481048  RH  050%=      5-min Rain = 0
KEN1 081919Z 26003KT 05/M05 A3025 RMK A01 T00491047  RH  050%=      5-min Rain = 0
KEN1 081920Z 29004KT 05/M05 A3025 RMK A01 T00491047  RH  050%=      5-min Rain = 0
KEN1 081921Z 30003KT 05/M05 A3025 RMK A01 T00491046  RH  050%=      5-min Rain = 0
KEN1 081922Z 30003KT 05/M05 A3025 RMK A01 T00491047  RH  050%=      5-min Rain = 0
KEN1 081923Z 32003KT 05/M05 A3024 RMK A01 T00491048  RH  050%=      5-min Rain = 0
KEN1 081924Z 28003KT 05/M05 A3024 RMK A01 T00471048  RH  050%=      5-min Rain = 0
KEN1 081925Z 28003KT 05/M05 A3024 RMK A01 T00471048  RH  050%=      5-min Rain = 0
KEN1 081926Z 27003KT 05/M05 A3024 RMK A01 T00471049  RH  050%=      5-min Rain = 0
KEN1 081927Z 25003KT 05/M05 A3024 RMK A01 T00471048  RH  050%=      5-min Rain = 0
KEN1 081928Z 26002KT 05/M05 A3024 RMK A01 T00481048  RH  050%=      5-min Rain = 0
KEN1 081929Z 29001KT 05/M05 A3024 RMK A01 T00481049  RH  049%=      5-min Rain = 0
KEN1 081930Z 33001KT 05/M05 A3024 RMK A01 T00481049  RH  050%=      5-min Rain = 0
KEN1 081931Z 36001KT 05/M05 A3024 RMK A01 T00471049  RH  050%=      5-min Rain = 0
KEN1 081932Z 04002KT 05/M05 A3024 RMK A01 T00471049  RH  050%=      5-min Rain = 0
KEN1 081933Z 04002KT 05/M05 A3024 RMK A01 T00461049  RH  050%=      5-min Rain = 0
KEN1 081934Z 02001KT 05/M05 A3024 RMK A01 T00461049  RH  050%=      5-min Rain = 0
KEN1 081935Z 31001KT 05/M05 A3024 RMK A01 T00481047  RH  050%=      5-min Rain = 0
KEN1 081936Z 27002KT 05/M05 A3024 RMK A01 T00491047  RH  050%=      5-min Rain = 0
KEN1 081937Z 24004KT 05/M05 A3024 RMK A01 T00491047  RH  050%=      5-min Rain = 0
KEN1 081938Z 26003KT 05/M05 A3024 RMK A01 T00491048  RH  050%=      5-min Rain = 0
KEN1 081939Z 26003KT 05/M05 A3023 RMK A01 T00481049  RH  050%=      5-min Rain = 0
KEN1 081940Z 30001KT 05/M05 A3023 RMK A01 T00481048  RH  050%=      5-min Rain = 0
KEN1 081941Z 30001KT 05/M05 A3023 RMK A01 T00491048  RH  050%=      5-min Rain = 0
KEN1 081942Z 34001KT 05/M05 A3023 RMK A01 T00501049  RH  049%=      5-min Rain = 0
KEN1 081943Z 03000KT 05/M05 A3023 RMK A01 T00521049  RH  048%=      5-min Rain = 0
KEN1 081944Z 34000KT 05/M05 A3023 RMK A01 T00521049  RH  048%=      5-min Rain = 0
KEN1 081945Z 24001KT 05/M05 A3023 RMK A01 T00521049  RH  048%=      5-min Rain = 0
KEN1 081946Z 24002KT 05/M05 A3023 RMK A01 T00521047  RH  049%=      5-min Rain = 0
KEN1 081947Z 22003KT 06/M05 A3023 RMK A01 T00551046  RH  048%=      5-min Rain = 0
KEN1 081948Z 19003KT 06/M05 A3023 RMK A01 T00551047  RH  048%=      5-min Rain = 0
KEN1 081949Z 19002KT 05/M05 A3023 RMK A01 T00531049  RH  048%=      5-min Rain = 0
KEN1 081950Z 18001KT 05/M05 A3023 RMK A01 T00521049  RH  048%=      5-min Rain = 0
KEN1 081951Z 24001KT 05/M05 A3023 RMK A01 T00531048  RH  048%=      5-min Rain = 0
KEN1 081952Z 14000KT 05/M05 A3023 RMK A01 T00541048  RH  048%=      5-min Rain = 0
KEN1 081953Z 14002KT 05/M05 A3023 RMK A01 T00541047  RH  048%=      5-min Rain = 0
KEN1 081954Z 14001KT 06/M05 A3023 RMK A01 T00561047  RH  047%=      5-min Rain = 0
KEN1 081955Z 13000KT 06/M05 A3023 RMK A01 T00571049  RH  047%=      5-min Rain = 0
KEN1 081956Z 16000KT 06/M05 A3023 RMK A01 T00571050  RH  046%=      5-min Rain = 0
KEN1 081957Z 24001KT 06/M05 A3023 RMK A01 T00581050  RH  046%=      5-min Rain = 0
KEN1 081958Z 20001KT 06/M05 A3023 RMK A01 T00591050  RH  046%=      5-min Rain = 0
KEN1 081959Z 17001KT 06/M05 A3023 RMK A01 T00611048  RH  046%=      5-min Rain = 0
KEN1 082000Z 23002KT 06/M05 A3023 RMK A01 T00611049  RH  045%=      5-min Rain = 0
KEN1 082001Z 24002KT 06/M05 A3023 RMK A01 T00591050  RH  045%=      5-min Rain = 0
KEN1 082002Z 23001KT 06/M05 A3023 RMK A01 T00581050  RH  046%=      5-min Rain = 0
KEN1 082003Z 21001KT 06/M05 A3023 RMK A01 T00581049  RH  046%=      5-min Rain = 0
KEN1 082004Z 19001KT 06/M05 A3023 RMK A01 T00591048  RH  046%=      5-min Rain = 0
KEN1 082005Z 15003KT 06/M05 A3023 RMK A01 T00601048  RH  046%=      5-min Rain = 0
KEN1 082006Z 15003KT 06/M05 A3022 RMK A01 T00611047  RH  046%=      5-min Rain = 0
KEN1 082007Z 17003KT 06/M05 A3022 RMK A01 T00601048  RH  046%=      5-min Rain = 0
KEN1 082008Z 19001KT 06/M05 A3022 RMK A01 T00601047  RH  046%=      5-min Rain = 0
KEN1 082009Z 13002KT 06/M05 A3022 RMK A01 T00601047  RH  046%=      5-min Rain = 0
KEN1 082010Z 09001KT 06/M05 A3022 RMK A01 T00601048  RH  046%=      5-min Rain = 0
KEN1 082011Z 10002KT 06/M05 A3022 RMK A01 T00581049  RH  046%=      5-min Rain = 0
KEN1 082012Z 05001KT 06/M05 A3022 RMK A01 T00571048  RH  047%=      5-min Rain = 0
KEN1 082013Z 18003KT 06/M05 A3022 RMK A01 T00581047  RH  047%=      5-min Rain = 0
KEN1 082014Z 21004KT 06/M05 A3022 RMK A01 T00601047  RH  046%=      5-min Rain = 0
KEN1 082015Z 23002KT 06/M05 A3022 RMK A01 T00591052  RH  045%=      5-min Rain = 0
KEN1 082016Z 22000KT 06/M05 A3022 RMK A01 T00591053  RH  045%=      5-min Rain = 0
KEN1 082017Z 24001KT 06/M05 A3022 RMK A01 T00611050  RH  045%=      5-min Rain = 0
KEN1 082018Z 24005KT 06/M05 A3022 RMK A01 T00631051  RH  044%=      5-min Rain = 0
KEN1 082019Z 24003KT 06/M05 A3022 RMK A01 T00631052  RH  044%=      5-min Rain = 0
KEN1 082020Z 23005KT 06/M05 A3022 RMK A01 T00611052  RH  044%=      5-min Rain = 0
KEN1 082021Z 21005KT 06/M05 A3022 RMK A01 T00611052  RH  044%=      5-min Rain = 0
KEN1 082022Z 20003KT 06/M05 A3022 RMK A01 T00601053  RH  044%=      5-min Rain = 0
KEN1 082023Z 20004KT 06/M05 A3022 RMK A01 T00611052  RH  044%=      5-min Rain = 0
KEN1 082024Z 21004KT 06/M05 A3022 RMK A01 T00611051  RH  044%=      5-min Rain = 0
KEN1 082025Z 21002KT 06/M05 A3022 RMK A01 T00621052  RH  044%=      5-min Rain = 0
KEN1 082026Z 19001KT 06/M05 A3022 RMK A01 T00611051  RH  044%=      5-min Rain = 0
KEN1 082027Z 29001KT 06/M05 A3022 RMK A01 T00631050  RH  044%=      5-min Rain = 0
KEN1 082028Z 34001KT 06/M05 A3021 RMK A01 T00641050  RH  044%=      5-min Rain = 0
KEN1 082029Z 01001KT 07/M05 A3021 RMK A01 T00651050  RH  044%=      5-min Rain = 0
KEN1 082030Z 32001KT 06/M05 A3021 RMK A01 T00641051  RH  043%=      5-min Rain = 0
KEN1 082031Z 31002KT 06/M05 A3021 RMK A01 T00641050  RH  044%=      5-min Rain = 0
KEN1 082032Z 27003KT 07/M05 A3021 RMK A01 T00651048  RH  044%=      5-min Rain = 0
KEN1 082033Z 30004KT 07/M05 A3021 RMK A01 T00651050  RH  043%=      5-min Rain = 0
KEN1 082034Z 31004KT 07/M05 A3021 RMK A01 T00651050  RH  044%=      5-min Rain = 0
KEN1 082035Z 31003KT 07/M05 A3021 RMK A01 T00651051  RH  043%=      5-min Rain = 0
KEN1 082036Z 30003KT 06/M05 A3021 RMK A01 T00631053  RH  043%=      5-min Rain = 0
KEN1 082037Z 30004KT 06/M05 A3021 RMK A01 T00621052  RH  044%=      5-min Rain = 0
KEN1 082038Z 31003KT 06/M05 A3021 RMK A01 T00621052  RH  044%=      5-min Rain = 0
KEN1 082039Z 31003KT 06/M05 A3021 RMK A01 T00621051  RH  044%=      5-min Rain = 0
KEN1 082040Z 25003KT 06/M05 A3021 RMK A01 T00621051  RH  044%=      5-min Rain = 0
KEN1 082041Z 23004KT 06/M05 A3021 RMK A01 T00641049  RH  044%=      5-min Rain = 0
KEN1 082042Z 22004KT 07/M05 A3021 RMK A01 T00661050  RH  043%=      5-min Rain = 0
KEN1 082043Z 23003KT 07/M05 A3021 RMK A01 T00651052  RH  043%=      5-min Rain = 0
KEN1 082044Z 25003KT 06/M05 A3021 RMK A01 T00631052  RH  043%=      5-min Rain = 0
KEN1 082045Z 26002KT 06/M05 A3021 RMK A01 T00621053  RH  043%=      5-min Rain = 0
KEN1 082046Z 24001KT 06/M05 A3021 RMK A01 T00621052  RH  044%=      5-min Rain = 0
KEN1 082047Z 26002KT 06/M05 A3021 RMK A01 T00631052  RH  044%=      5-min Rain = 0
KEN1 082048Z 27002KT 07/M05 A3021 RMK A01 T00651051  RH  043%=      5-min Rain = 0
KEN1 082049Z 24003KT 07/M05 A3021 RMK A01 T00651051  RH  043%=      5-min Rain = 0
KEN1 082050Z 23002KT 07/M05 A3021 RMK A01 T00661051  RH  043%=      5-min Rain = 0
KEN1 082051Z 19002KT 07/M05 A3021 RMK A01 T00681050  RH  043%=      5-min Rain = 0
KEN1 082052Z 18004KT 07/M05 A3021 RMK A01 T00701050  RH  042%=      5-min Rain = 0
KEN1 082053Z 19004KT 07/M05 A3021 RMK A01 T00711051  RH  042%=      5-min Rain = 0
KEN1 082054Z 20004KT 07/M05 A3021 RMK A01 T00701052  RH  042%=      5-min Rain = 0
KEN1 082055Z 19004KT 07/M05 A3021 RMK A01 T00681052  RH  042%=      5-min Rain = 0
KEN1 082056Z 18003KT 07/M05 A3021 RMK A01 T00681051  RH  042%=      5-min Rain = 0
KEN1 082057Z 22005KT 07/M05 A3021 RMK A01 T00681051  RH  042%=      5-min Rain = 0
KEN1 082058Z 21004KT 07/M05 A3021 RMK A01 T00691050  RH  042%=      5-min Rain = 0
KEN1 082059Z 20002KT 07/M05 A3021 RMK A01 T00681053  RH  042%=      5-min Rain = 0
KEN1 082100Z 14001KT 07/M05 A3021 RMK A01 T00671053  RH  042%=      5-min Rain = 0
KEN1 082101Z 15001KT 07/M05 A3021 RMK A01 T00681052  RH  042%=      5-min Rain = 0
KEN1 082102Z 15002KT 07/M05 A3021 RMK A01 T00691051  RH  042%=      5-min Rain = 0
KEN1 082103Z 07001KT 07/M05 A3021 RMK A01 T00691052  RH  042%=      5-min Rain = 0
KEN1 082104Z 18000KT 07/M05 A3021 RMK A01 T00671053  RH  042%=      5-min Rain = 0
KEN1 082105Z 20002KT 07/M05 A302 RMK A01 T00671053  RH  042%=      5-min Rain = 0
KEN1 082106Z 24004KT 07/M05 A302 RMK A01 T00671052  RH  042%=      5-min Rain = 0
KEN1 082107Z 24005KT 07/M05 A302 RMK A01 T00681051  RH  043%=      5-min Rain = 0
KEN1 082108Z 25004KT 07/M05 A302 RMK A01 T00691051  RH  042%=      5-min Rain = 0
KEN1 082109Z 25004KT 07/M05 A302 RMK A01 T00671052  RH  042%=      5-min Rain = 0
KEN1 082110Z 23003KT 07/M05 A302 RMK A01 T00671052  RH  043%=      5-min Rain = 0
KEN1 082111Z 22003KT 07/M05 A302 RMK A01 T00681051  RH  042%=      5-min Rain = 0
KEN1 082112Z 23002KT 07/M05 A302 RMK A01 T00681052  RH  042%=      5-min Rain = 0
KEN1 082113Z 24003KT 07/M05 A302 RMK A01 T00681051  RH  042%=      5-min Rain = 0
KEN1 082114Z 24005KT 07/M05 A302 RMK A01 T00701049  RH  042%=      5-min Rain = 0
KEN1 082115Z 21005KT 07/M05 A302 RMK A01 T00701050  RH  042%=      5-min Rain = 0
KEN1 082116Z 20005KT 07/M05 A302 RMK A01 T00701050  RH  042%=      5-min Rain = 0
KEN1 082117Z 19004KT 07/M05 A3021 RMK A01 T00701050  RH  042%=      5-min Rain = 0
KEN1 082118Z 20003KT 07/M05 A3021 RMK A01 T00701050  RH  042%=      5-min Rain = 0
KEN1 082119Z 24002KT 07/M05 A3021 RMK A01 T00701051  RH  042%=      5-min Rain = 0
KEN1 082120Z 26003KT 07/M05 A3021 RMK A01 T00701050  RH  042%=      5-min Rain = 0
KEN1 082121Z 27003KT 07/M05 A302 RMK A01 T00711050  RH  042%=      5-min Rain = 0
KEN1 082122Z 28003KT 07/M05 A302 RMK A01 T00721050  RH  042%=      5-min Rain = 0
KEN1 082123Z 30002KT 07/M05 A302 RMK A01 T00721050  RH  041%=      5-min Rain = 0
KEN1 082124Z 31003KT 07/M05 A302 RMK A01 T00711051  RH  041%=      5-min Rain = 0
KEN1 082125Z 33004KT 07/M05 A302 RMK A01 T00691053  RH  041%=      5-min Rain = 0
KEN1 082126Z 32004KT 07/M05 A3021 RMK A01 T00671053  RH  042%=      5-min Rain = 0
KEN1 082127Z 34004KT 07/M05 A3021 RMK A01 T00661053  RH  042%=      5-min Rain = 0
KEN1 082128Z 00003KT 07/M05 A302 RMK A01 T00651054  RH  042%=      5-min Rain = 0
KEN1 082129Z 35003KT 06/M05 A302 RMK A01 T00641053  RH  043%=      5-min Rain = 0
KEN1 082130Z 32003KT 07/M05 A302 RMK A01 T00651052  RH  043%=      5-min Rain = 0
KEN1 082131Z 33002KT 07/M05 A302 RMK A01 T00661052  RH  043%=      5-min Rain = 0
KEN1 082132Z 33003KT 07/M05 A302 RMK A01 T00681051  RH  042%=      5-min Rain = 0
KEN1 082133Z 33004KT 07/M05 A302 RMK A01 T00691051  RH  042%=      5-min Rain = 0
KEN1 082134Z 32004KT 07/M05 A302 RMK A01 T00691051  RH  042%=      5-min Rain = 0
KEN1 082135Z 33003KT 07/M05 A302 RMK A01 T00691052  RH  042%=      5-min Rain = 0
KEN1 082136Z 05003KT 07/M05 A302 RMK A01 T00681053  RH  042%=      5-min Rain = 0
KEN1 082137Z 06002KT 07/M05 A302 RMK A01 T00681053  RH  042%=      5-min Rain = 0
KEN1 082138Z 01002KT 07/M05 A302 RMK A01 T00671053  RH  042%=      5-min Rain = 0
KEN1 082139Z 01003KT 07/M05 A302 RMK A01 T00671052  RH  042%=      5-min Rain = 0
KEN1 082140Z 02002KT 07/M05 A302 RMK A01 T00681053  RH  042%=      5-min Rain = 0
KEN1 082141Z 01003KT 07/M05 A302 RMK A01 T00691054  RH  041%=      5-min Rain = 0
KEN1 082142Z 03002KT 07/M05 A302 RMK A01 T00691054  RH  041%=      5-min Rain = 0
KEN1 082143Z 02002KT 07/M05 A302 RMK A01 T00691053  RH  041%=      5-min Rain = 0
KEN1 082144Z 04001KT 07/M05 A302 RMK A01 T00691053  RH  041%=      5-min Rain = 0
KEN1 082145Z 17001KT 07/M05 A302 RMK A01 T00711051  RH  041%=      5-min Rain = 0
KEN1 082146Z 18002KT 07/M05 A302 RMK A01 T00741051  RH  041%=      5-min Rain = 0
KEN1 082147Z 17002KT 08/M05 A302 RMK A01 T00751052  RH  040%=      5-min Rain = 0
KEN1 082148Z 16001KT 08/M05 A302 RMK A01 T00751052  RH  040%=      5-min Rain = 0
KEN1 082149Z 17003KT 08/M05 A302 RMK A01 T00751053  RH  040%=      5-min Rain = 0
KEN1 082150Z 16003KT 08/M05 A302 RMK A01 T00761052  RH  040%=      5-min Rain = 0
KEN1 082151Z 15002KT 08/M05 A302 RMK A01 T00761053  RH  040%=      5-min Rain = 0
KEN1 082152Z 12002KT 08/M05 A302 RMK A01 T00751053  RH  040%=      5-min Rain = 0
KEN1 082153Z 13003KT 07/M05 A302 RMK A01 T00741052  RH  040%=      5-min Rain = 0
KEN1 082154Z 14003KT 07/M05 A302 RMK A01 T00741052  RH  040%=      5-min Rain = 0
KEN1 082155Z 13003KT 07/M05 A302 RMK A01 T00741052  RH  040%=      5-min Rain = 0
KEN1 082156Z 13003KT 07/M05 A302 RMK A01 T00731053  RH  040%=      5-min Rain = 0
KEN1 082157Z 13003KT 07/M05 A302 RMK A01 T00731052  RH  041%=      5-min Rain = 0
KEN1 082158Z 10002KT 07/M05 A302 RMK A01 T00731052  RH  041%=      5-min Rain = 0
KEN1 082159Z 14001KT 07/M05 A302 RMK A01 T00731053  RH  041%=      5-min Rain = 0
KEN1 082200Z 13001KT 07/M05 A302 RMK A01 T00731052  RH  041%=      5-min Rain = 0
KEN1 082201Z 14002KT 08/M05 A302 RMK A01 T00751052  RH  040%=      5-min Rain = 0
KEN1 082202Z 08002KT 08/M05 A302 RMK A01 T00751052  RH  040%=      5-min Rain = 0
KEN1 082203Z 05002KT 08/M05 A302 RMK A01 T00751052  RH  040%=      5-min Rain = 0
KEN1 082204Z 06002KT 08/M05 A302 RMK A01 T00761052  RH  040%=      5-min Rain = 0
KEN1 082205Z 05002KT 08/M05 A302 RMK A01 T00761052  RH  040%=      5-min Rain = 0
KEN1 082206Z 16002KT 08/M05 A3019 RMK A01 T00761052  RH  040%=      5-min Rain = 0
KEN1 082207Z 14003KT 08/M05 A3019 RMK A01 T00771051  RH  040%=      5-min Rain = 0
KEN1 082208Z 16004KT 08/M05 A3019 RMK A01 T00781050  RH  040%=      5-min Rain = 0
KEN1 082209Z 16003KT 08/M05 A3019 RMK A01 T00791049  RH  040%=      5-min Rain = 0
KEN1 082210Z 16002KT 08/M05 A3019 RMK A01 T00781050  RH  040%=      5-min Rain = 0
KEN1 082211Z 12001KT 08/M05 A3019 RMK A01 T00781050  RH  040%=      5-min Rain = 0
KEN1 082212Z 12003KT 08/M05 A3019 RMK A01 T00791050  RH  040%=      5-min Rain = 0
KEN1 082213Z 12003KT 08/M05 A3019 RMK A01 T00771052  RH  040%=      5-min Rain = 0
KEN1 082214Z 12003KT 08/M05 A3019 RMK A01 T00761051  RH  040%=      5-min Rain = 0
KEN1 082215Z 12003KT 08/M05 A3019 RMK A01 T00751052  RH  040%=      5-min Rain = 0
KEN1 082216Z 13002KT 07/M05 A3019 RMK A01 T00741052  RH  040%=      5-min Rain = 0
KEN1 082217Z 13002KT 07/M05 A3019 RMK A01 T00731053  RH  040%=      5-min Rain = 0
KEN1 082218Z 14002KT 07/M05 A3019 RMK A01 T00731053  RH  040%=      5-min Rain = 0
KEN1 082219Z 12002KT 07/M05 A3019 RMK A01 T00731052  RH  041%=      5-min Rain = 0
KEN1 082220Z 12001KT 07/M05 A3019 RMK A01 T00731052  RH  041%=      5-min Rain = 0
KEN1 082221Z 15001KT 07/M05 A3019 RMK A01 T00731052  RH  041%=      5-min Rain = 0
KEN1 082222Z 19000KT 07/M05 A3019 RMK A01 T00741052  RH  040%=      5-min Rain = 0
KEN1 082223Z 14000KT 08/M05 A302 RMK A01 T00751052  RH  040%=      5-min Rain = 0
KEN1 082224Z 12002KT 08/M05 A302 RMK A01 T00761051  RH  040%=      5-min Rain = 0
KEN1 082225Z 12002KT 08/M05 A302 RMK A01 T00761051  RH  040%=      5-min Rain = 0
KEN1 082226Z 12002KT 08/M05 A302 RMK A01 T00761051  RH  040%=      5-min Rain = 0
KEN1 082227Z 10002KT 08/M05 A302 RMK A01 T00761052  RH  040%=      5-min Rain = 0
KEN1 082228Z 06002KT 08/M05 A302 RMK A01 T00751052  RH  040%=      5-min Rain = 0
KEN1 082229Z 05001KT 07/M05 A302 RMK A01 T00741052  RH  040%=      5-min Rain = 0
KEN1 082230Z 05001KT 07/M05 A302 RMK A01 T00731052  RH  040%=      5-min Rain = 0
KEN1 082231Z 05001KT 07/M05 A302 RMK A01 T00731052  RH  041%=      5-min Rain = 0
KEN1 082232Z 05001KT 07/M05 A302 RMK A01 T00731052  RH  041%=      5-min Rain = 0
KEN1 082233Z 00000KT 07/M05 A302 RMK A01 T00731052  RH  041%=      5-min Rain = 0
KEN1 082234Z 00000KT 07/M05 A302 RMK A01 T00731052  RH  041%=      5-min Rain = 0
KEN1 082235Z 00000KT 07/M05 A302 RMK A01 T00731052  RH  041%=      5-min Rain = 0
KEN1 082236Z 00000KT 07/M05 A302 RMK A01 T00741051  RH  041%=      5-min Rain = 0
KEN1 082237Z 27000KT 07/M05 A302 RMK A01 T00741052  RH  040%=      5-min Rain = 0
KEN1 082238Z 02000KT 07/M05 A302 RMK A01 T00741052  RH  040%=      5-min Rain = 0
KEN1 082239Z 03001KT 08/M05 A302 RMK A01 T00751051  RH  040%=      5-min Rain = 0
KEN1 082240Z 04001KT 08/M05 A302 RMK A01 T00751051  RH  040%=      5-min Rain = 0
KEN1 082241Z 03001KT 07/M05 A302 RMK A01 T00741052  RH  040%=      5-min Rain = 0
KEN1 082242Z 02003KT 07/M05 A302 RMK A01 T00741051  RH  041%=      5-min Rain = 0
KEN1 082243Z 03004KT 07/M05 A302 RMK A01 T00741051  RH  041%=      5-min Rain = 0
KEN1 082244Z 05003KT 07/M05 A302 RMK A01 T00731052  RH  041%=      5-min Rain = 0
KEN1 082245Z 07003KT 07/M05 A302 RMK A01 T00731051  RH  041%=      5-min Rain = 0
KEN1 082246Z 05002KT 07/M05 A302 RMK A01 T00721052  RH  041%=      5-min Rain = 0
KEN1 082247Z 04002KT 07/M05 A302 RMK A01 T00711052  RH  041%=      5-min Rain = 0
KEN1 082248Z 05001KT 07/M05 A302 RMK A01 T00711052  RH  041%=      5-min Rain = 0
KEN1 082249Z 07002KT 07/M05 A302 RMK A01 T00711052  RH  041%=      5-min Rain = 0
KEN1 082250Z 06002KT 07/M05 A302 RMK A01 T00711052  RH  041%=      5-min Rain = 0
KEN1 082251Z 08003KT 07/M05 A302 RMK A01 T00711051  RH  041%=      5-min Rain = 0
KEN1 082252Z 07003KT 07/M05 A302 RMK A01 T00711051  RH  041%=      5-min Rain = 0
KEN1 082253Z 08004KT 07/M05 A302 RMK A01 T00701052  RH  041%=      5-min Rain = 0
KEN1 082254Z 07003KT 07/M05 A302 RMK A01 T00701052  RH  042%=      5-min Rain = 0
KEN1 082255Z 07002KT 07/M05 A302 RMK A01 T00691052  RH  042%=      5-min Rain = 0
KEN1 082256Z 06002KT 07/M05 A302 RMK A01 T00691052  RH  042%=      5-min Rain = 0
KEN1 082257Z 06002KT 07/M05 A302 RMK A01 T00691052  RH  042%=      5-min Rain = 0
KEN1 082258Z 04002KT 07/M05 A302 RMK A01 T00691052  RH  042%=      5-min Rain = 0
KEN1 082259Z 06002KT 07/M05 A302 RMK A01 T00691052  RH  042%=      5-min Rain = 0
KEN1 082300Z 06003KT 07/M05 A302 RMK A01 T00691052  RH  042%=      5-min Rain = 0
KEN1 082301Z 06003KT 07/M05 A302 RMK A01 T00681052  RH  042%=      5-min Rain = 0
KEN1 082302Z 05003KT 07/M05 A302 RMK A01 T00681052  RH  042%=      5-min Rain = 0
KEN1 082303Z 04003KT 07/M05 A302 RMK A01 T00681052  RH  042%=      5-min Rain = 0
KEN1 082304Z 04002KT 07/M05 A302 RMK A01 T00681052  RH  042%=      5-min Rain = 0
KEN1 082305Z 03002KT 07/M05 A302 RMK A01 T00671052  RH  042%=      5-min Rain = 0
KEN1 082306Z 03002KT 07/M05 A302 RMK A01 T00671052  RH  042%=      5-min Rain = 0
KEN1 082307Z 03002KT 07/M05 A302 RMK A01 T00671052  RH  042%=      5-min Rain = 0
KEN1 082308Z 05002KT 07/M05 A302 RMK A01 T00671052  RH  042%=      5-min Rain = 0
KEN1 082309Z 05002KT 07/M05 A302 RMK A01 T00661052  RH  042%=      5-min Rain = 0
KEN1 082310Z 05002KT 07/M05 A302 RMK A01 T00661052  RH  043%=      5-min Rain = 0
KEN1 082311Z 04003KT 07/M05 A302 RMK A01 T00651052  RH  043%=      5-min Rain = 0
KEN1 082312Z 04004KT 07/M05 A302 RMK A01 T00651053  RH  043%=      5-min Rain = 0
KEN1 082313Z 04004KT 06/M05 A302 RMK A01 T00631054  RH  043%=      5-min Rain = 0
KEN1 082314Z 04005KT 06/M05 A302 RMK A01 T00621054  RH  043%=      5-min Rain = 0
KEN1 082315Z 03005KT 06/M06 A302 RMK A01 T00601055  RH  044%=      5-min Rain = 0
KEN1 082316Z 03004KT 06/M06 A302 RMK A01 T00581055  RH  044%=      5-min Rain = 0
KEN1 082317Z 03004KT 06/M06 A302 RMK A01 T00561055  RH  045%=      5-min Rain = 0
KEN1 082318Z 04004KT 06/M06 A3021 RMK A01 T00551055  RH  045%=      5-min Rain = 0
KEN1 082319Z 04004KT 05/M06 A3021 RMK A01 T00541055  RH  045%=      5-min Rain = 0
KEN1 082320Z 04004KT 05/M06 A3021 RMK A01 T00521055  RH  046%=      5-min Rain = 0
KEN1 082321Z 04004KT 05/M06 A3021 RMK A01 T00511055  RH  046%=      5-min Rain = 0
KEN1 082322Z 04004KT 05/M06 A3021 RMK A01 T00511055  RH  046%=      5-min Rain = 0
KEN1 082323Z 04004KT 05/M06 A3021 RMK A01 T00501055  RH  047%=      5-min Rain = 0
KEN1 082324Z 04004KT 05/M06 A3021 RMK A01 T00501055  RH  047%=      5-min Rain = 0
KEN1 082325Z 04005KT 05/M06 A3021 RMK A01 T00491055  RH  047%=      5-min Rain = 0
KEN1 082326Z 04005KT 05/M06 A3021 RMK A01 T00481055  RH  047%=      5-min Rain = 0
KEN1 082327Z 04005KT 05/M06 A3021 RMK A01 T00481055  RH  047%=      5-min Rain = 0
KEN1 082328Z 04005KT 05/M06 A3021 RMK A01 T00461055  RH  048%=      5-min Rain = 0
KEN1 082329Z 04005KT 05/M06 A3021 RMK A01 T00461055  RH  048%=      5-min Rain = 0
KEN1 082330Z 04005KT 04/M06 A3021 RMK A01 T00441056  RH  048%=      5-min Rain = 0
KEN1 082331Z 04006KT 04/M06 A3021 RMK A01 T00431056  RH  049%=      5-min Rain = 0
KEN1 082332Z 04006KT 04/M06 A3021 RMK A01 T00431055  RH  049%=      5-min Rain = 0
KEN1 082333Z 04006KT 04/M06 A3021 RMK A01 T00421056  RH  049%=      5-min Rain = 0
KEN1 082334Z 04006KT 04/M06 A3021 RMK A01 T00411056  RH  049%=      5-min Rain = 0
KEN1 082335Z 04006KT 04/M06 A3021 RMK A01 T00391057  RH  050%=      5-min Rain = 0
KEN1 082336Z 04006KT 04/M06 A3021 RMK A01 T00361058  RH  050%=      5-min Rain = 0
KEN1 082337Z 04006KT 03/M06 A3021 RMK A01 T00341058  RH  051%=      5-min Rain = 0
KEN1 082338Z 05006KT 03/M06 A3021 RMK A01 T00321058  RH  052%=      5-min Rain = 0
KEN1 082339Z 05006KT 03/M06 A3021 RMK A01 T00301058  RH  052%=      5-min Rain = 0
KEN1 082340Z 05006KT 03/M06 A3021 RMK A01 T00291057  RH  053%=      5-min Rain = 0
KEN1 082341Z 05007KT 03/M06 A3021 RMK A01 T00281057  RH  054%=      5-min Rain = 0
KEN1 082342Z 05007KT 03/M06 A3021 RMK A01 T00271057  RH  054%=      5-min Rain = 0
KEN1 082343Z 05006KT 03/M06 A3021 RMK A01 T00251057  RH  054%=      5-min Rain = 0
KEN1 082344Z 05006KT 03/M06 A3021 RMK A01 T00251057  RH  055%=      5-min Rain = 0
KEN1 082345Z 05007KT 02/M06 A3021 RMK A01 T00241057  RH  055%=      5-min Rain = 0
KEN1 082346Z 05007KT 02/M06 A3021 RMK A01 T00241056  RH  056%=      5-min Rain = 0
KEN1 082347Z 05007KT 02/M06 A3021 RMK A01 T00221057  RH  056%=      5-min Rain = 0
KEN1 082348Z 05007KT 02/M06 A3021 RMK A01 T00201057  RH  056%=      5-min Rain = 0
KEN1 082349Z 05007KT 02/M06 A3021 RMK A01 T00191058  RH  057%=      5-min Rain = 0
KEN1 082350Z 05007KT 02/M06 A3021 RMK A01 T00181058  RH  057%=      5-min Rain = 0
KEN1 082351Z 05008KT 02/M06 A3021 RMK A01 T00161058  RH  058%=      5-min Rain = 0
KEN1 082352Z 05008KT 02/M06 A3021 RMK A01 T00151058  RH  058%=      5-min Rain = 0
KEN1 082353Z 05008KT 01/M06 A3021 RMK A01 T00141058  RH  058%=      5-min Rain = 0
KEN1 082354Z 05008KT 01/M06 A3021 RMK A01 T00131059  RH  059%=      5-min Rain = 0
KEN1 082355Z 05008KT 01/M06 A3021 RMK A01 T00131059  RH  059%=      5-min Rain = 0
KEN1 082356Z 05008KT 01/M06 A3021 RMK A01 T00121058  RH  059%=      5-min Rain = 0
KEN1 082357Z 05008KT 01/M06 A3021 RMK A01 T00121058  RH  059%=      5-min Rain = 0
KEN1 082358Z 05008KT 01/M06 A3021 RMK A01 T00121058  RH  060%=      5-min Rain = 0
KEN1 082359Z 05009KT 01/M06 A3021 RMK A01 T00121058  RH  060%=      5-min Rain = 0
KEN1 090000Z 05009KT 01/M06 A3021 RMK A01 T00121058  RH  060%=      5-min Rain = 0
KEN1 090001Z 05008KT 01/M06 A3021 RMK A01 T00121058  RH  060%=      5-min Rain = 0
KEN1 090002Z 05009KT 01/M06 A3021 RMK A01 T00101059  RH  060%=      5-min Rain = 0
KEN1 090003Z 05009KT 01/M06 A3021 RMK A01 T00091059  RH  061%=      5-min Rain = 0
KEN1 090004Z 06009KT 01/M06 A3021 RMK A01 T00081059  RH  061%=      5-min Rain = 0
KEN1 090005Z 06009KT 01/M06 A3021 RMK A01 T00071059  RH  061%=      5-min Rain = 0
KEN1 090006Z 06009KT 01/M06 A3021 RMK A01 T00061059  RH  062%=      5-min Rain = 0
KEN1 090007Z 06010KT 01/M06 A3021 RMK A01 T00051059  RH  062%=      5-min Rain = 0
KEN1 090008Z 06010KT 01/M06 A3021 RMK A01 T00051059  RH  062%=      5-min Rain = 0
KEN1 090009Z 05010KT 01/M06 A3021 RMK A01 T00061058  RH  062%=      5-min Rain = 0
KEN1 090010Z 05009KT 01/M06 A3021 RMK A01 T00061057  RH  062%=      5-min Rain = 0
KEN1 090011Z 05010KT 01/M06 A3021 RMK A01 T00071057  RH  062%=      5-min Rain = 0
KEN1 090012Z 05010KT 01/M06 A3021 RMK A01 T00071057  RH  062%=      5-min Rain = 0
KEN1 090013Z 05009KT 01/M06 A3021 RMK A01 T00081056  RH  062%=      5-min Rain = 0
KEN1 090014Z 05009KT 01/M06 A3021 RMK A01 T00091056  RH  062%=      5-min Rain = 0
KEN1 090015Z 05009KT 01/M06 A3021 RMK A01 T00101056  RH  062%=      5-min Rain = 0
KEN1 090016Z 05009KT 01/M06 A3022 RMK A01 T00101056  RH  062%=      5-min Rain = 0
KEN1 090017Z 06009KT 01/M06 A3022 RMK A01 T00091056  RH  062%=      5-min Rain = 0
KEN1 090018Z 06009KT 01/M06 A3022 RMK A01 T00091057  RH  062%=      5-min Rain = 0
KEN1 090019Z 06009KT 01/M06 A3022 RMK A01 T00071057  RH  062%=      5-min Rain = 0
KEN1 090020Z 06009KT 01/M06 A3022 RMK A01 T00061057  RH  062%=      5-min Rain = 0
KEN1 090021Z 06009KT 01/M06 A3022 RMK A01 T00061057  RH  063%=      5-min Rain = 0
KEN1 090022Z 06009KT 01/M06 A3022 RMK A01 T00061056  RH  063%=      5-min Rain = 0
KEN1 090023Z 06009KT 01/M06 A3022 RMK A01 T00061056  RH  063%=      5-min Rain = 0
KEN1 090024Z 06009KT 01/M06 A3022 RMK A01 T00061056  RH  063%=      5-min Rain = 0
KEN1 090025Z 06009KT 01/M06 A3022 RMK A01 T00061056  RH  063%=      5-min Rain = 0
KEN1 090026Z 06009KT 01/M06 A3022 RMK A01 T00061056  RH  063%=      5-min Rain = 0
KEN1 090027Z 06009KT 01/M06 A3022 RMK A01 T00061056  RH  063%=      5-min Rain = 0
KEN1 090028Z 06009KT 01/M06 A3022 RMK A01 T00051056  RH  063%=      5-min Rain = 0
KEN1 090029Z 06009KT 01/M06 A3022 RMK A01 T00051057  RH  063%=      5-min Rain = 0
KEN1 090030Z 06009KT 00/M06 A3022 RMK A01 T00041057  RH  064%=      5-min Rain = 0
KEN1 090031Z 07009KT 00/M06 A3022 RMK A01 T00031058  RH  064%=      5-min Rain = 0
KEN1 090032Z 07009KT 00/M06 A3022 RMK A01 T00021058  RH  064%=      5-min Rain = 0
KEN1 090033Z 07009KT 00/M06 A3022 RMK A01 T00011058  RH  064%=      5-min Rain = 0
KEN1 090034Z 07009KT 00/06 A3022 RMK A01 T00000-58  RH  065%=      5-min Rain = 0
KEN1 090035Z 07009KT 00/06 A3022 RMK A01 T00-00-58  RH  065%=      5-min Rain = 0
KEN1 090036Z 07009KT M00/M06 A3022 RMK A01 T10011058  RH  066%=      5-min Rain = 0
KEN1 090037Z 07009KT M00/M06 A3022 RMK A01 T10011057  RH  066%=      5-min Rain = 0
KEN1 090038Z 07009KT M00/M06 A3022 RMK A01 T10011057  RH  066%=      5-min Rain = 0
KEN1 090039Z 07009KT M00/M06 A3022 RMK A01 T10011057  RH  066%=      5-min Rain = 0
KEN1 090040Z 07009KT M00/M06 A3022 RMK A01 T10011057  RH  066%=      5-min Rain = 0
KEN1 090041Z 07009KT 00/06 A3022 RMK A01 T00-00-56  RH  066%=      5-min Rain = 0
KEN1 090042Z 07009KT 00/06 A3022 RMK A01 T00000-56  RH  066%=      5-min Rain = 0
KEN1 090043Z 07009KT 00/06 A3023 RMK A01 T00000-56  RH  066%=      5-min Rain = 0
KEN1 090044Z 07009KT 00/M06 A3023 RMK A01 T00011055  RH  066%=      5-min Rain = 0
KEN1 090045Z 07009KT 00/M06 A3023 RMK A01 T00011056  RH  066%=      5-min Rain = 0
KEN1 090046Z 07009KT 00/M06 A3023 RMK A01 T00011056  RH  066%=      5-min Rain = 0
KEN1 090047Z 07009KT 00/M06 A3023 RMK A01 T00011056  RH  066%=      5-min Rain = 0
KEN1 090048Z 07008KT 00/06 A3023 RMK A01 T00000-56  RH  066%=      5-min Rain = 0
KEN1 090049Z 07008KT M00/M06 A3023 RMK A01 T10011056  RH  066%=      5-min Rain = 0
KEN1 090050Z 07008KT M00/M06 A3023 RMK A01 T10021056  RH  067%=      5-min Rain = 0
KEN1 090051Z 07008KT M00/M06 A3023 RMK A01 T10031057  RH  067%=      5-min Rain = 0
KEN1 090052Z 07009KT M00/M06 A3023 RMK A01 T10041057  RH  067%=      5-min Rain = 0
KEN1 090053Z 07009KT M01/M06 A3023 RMK A01 T10051057  RH  068%=      5-min Rain = 0
KEN1 090054Z 07009KT M01/M06 A3023 RMK A01 T10051057  RH  068%=      5-min Rain = 0
KEN1 090055Z 07009KT M01/M06 A3023 RMK A01 T10051057  RH  068%=      5-min Rain = 0
KEN1 090056Z 07009KT M01/M06 A3023 RMK A01 T10061057  RH  068%=      5-min Rain = 0
KEN1 090057Z 07009KT M01/M06 A3023 RMK A01 T10061057  RH  069%=      5-min Rain = 0
KEN1 090058Z 07010KT M01/M06 A3023 RMK A01 T10061057  RH  069%=      5-min Rain = 0
KEN1 090059Z 07010KT M01/M06 A3023 RMK A01 T10061057  RH  069%=      5-min Rain = 0
KEN1 090100Z 07010KT M01/M06 A3023 RMK A01 T10061056  RH  069%=      5-min Rain = 0
KEN1 090101Z 07009KT M01/M06 A3023 RMK A01 T10051056  RH  069%=      5-min Rain = 0
KEN1 090102Z 08009KT M00/M06 A3023 RMK A01 T10041055  RH  069%=      5-min Rain = 0
KEN1 090103Z 08009KT M00/M06 A3023 RMK A01 T10041055  RH  069%=      5-min Rain = 0
KEN1 090104Z 08009KT M00/M05 A3023 RMK A01 T10031054  RH  068%=      5-min Rain = 0
KEN1 090105Z 08009KT M00/M05 A3023 RMK A01 T10031054  RH  068%=      5-min Rain = 0
KEN1 090106Z 08008KT M00/M05 A3023 RMK A01 T10021054  RH  068%=      5-min Rain = 0
KEN1 090107Z 08008KT M00/M05 A3023 RMK A01 T10021053  RH  068%=      5-min Rain = 0
KEN1 090108Z 08008KT M00/M05 A3023 RMK A01 T10021053  RH  068%=      5-min Rain = 0
KEN1 090109Z 09008KT M00/M05 A3023 RMK A01 T10021053  RH  068%=      5-min Rain = 0
KEN1 090110Z 09008KT M00/M05 A3023 RMK A01 T10011053  RH  068%=      5-min Rain = 0
KEN1 090111Z 09008KT M00/M05 A3023 RMK A01 T10021053  RH  068%=      5-min Rain = 0
KEN1 090112Z 09008KT M00/M05 A3023 RMK A01 T10011053  RH  068%=      5-min Rain = 0
KEN1 090113Z 09008KT M00/M05 A3023 RMK A01 T10011053  RH  068%=      5-min Rain = 0
KEN1 090114Z 09007KT M00/M05 A3023 RMK A01 T10011053  RH  068%=      5-min Rain = 0
KEN1 090115Z 09007KT M00/M05 A3023 RMK A01 T10011054  RH  068%=      5-min Rain = 0
KEN1 090116Z 10007KT M00/M05 A3023 RMK A01 T10021054  RH  068%=      5-min Rain = 0
KEN1 090117Z 09007KT M00/M05 A3023 RMK A01 T10031054  RH  068%=      5-min Rain = 0
KEN1 090118Z 10007KT M00/M05 A3023 RMK A01 T10031054  RH  069%=      5-min Rain = 0
KEN1 090119Z 10007KT M00/M05 A3023 RMK A01 T10041054  RH  069%=      5-min Rain = 0
KEN1 090120Z 10007KT M01/M06 A3023 RMK A01 T10051055  RH  069%=      5-min Rain = 0
KEN1 090121Z 11007KT M01/M05 A3023 RMK A01 T10061054  RH  070%=      5-min Rain = 0
KEN1 090122Z 11007KT M01/M05 A3023 RMK A01 T10071054  RH  070%=      5-min Rain = 0
KEN1 090123Z 11008KT M01/M05 A3024 RMK A01 T10071054  RH  070%=      5-min Rain = 0
KEN1 090124Z 12008KT M01/M05 A3024 RMK A01 T10071054  RH  071%=      5-min Rain = 0
KEN1 090125Z 12007KT M01/M05 A3024 RMK A01 T10071054  RH  071%=      5-min Rain = 0
KEN1 090126Z 13007KT M01/M05 A3024 RMK A01 T10081054  RH  071%=      5-min Rain = 0
KEN1 090127Z 13006KT M01/M06 A3024 RMK A01 T10091055  RH  071%=      5-min Rain = 0
KEN1 090128Z 13006KT M01/M06 A3024 RMK A01 T10111056  RH  071%=      5-min Rain = 0
KEN1 090129Z 13006KT M01/M06 A3024 RMK A01 T10131057  RH  072%=      5-min Rain = 0
KEN1 090130Z 13006KT M01/M06 A3024 RMK A01 T10141057  RH  072%=      5-min Rain = 0
KEN1 090131Z 13006KT M02/M06 A3024 RMK A01 T10151058  RH  073%=      5-min Rain = 0
KEN1 090132Z 13007KT M02/M06 A3024 RMK A01 T10161058  RH  073%=      5-min Rain = 0
KEN1 090133Z 13007KT M02/M06 A3024 RMK A01 T10161057  RH  073%=      5-min Rain = 0
KEN1 090134Z 12007KT M02/M06 A3024 RMK A01 T10161057  RH  073%=      5-min Rain = 0
KEN1 090135Z 12006KT M02/M06 A3024 RMK A01 T10161057  RH  073%=      5-min Rain = 0
KEN1 090136Z 12006KT M02/M06 A3024 RMK A01 T10151057  RH  073%=      5-min Rain = 0
KEN1 090137Z 12006KT M02/M06 A3024 RMK A01 T10161058  RH  073%=      5-min Rain = 0
KEN1 090138Z 11006KT M02/M06 A3024 RMK A01 T10171058  RH  073%=      5-min Rain = 0
KEN1 090139Z 11006KT M02/M06 A3024 RMK A01 T10171058  RH  074%=      5-min Rain = 0
KEN1 090140Z 11007KT M02/M06 A3024 RMK A01 T10161057  RH  074%=      5-min Rain = 0
KEN1 090141Z 11007KT M02/M06 A3024 RMK A01 T10161057  RH  073%=      5-min Rain = 0
KEN1 090142Z 11007KT M02/M06 A3024 RMK A01 T10161057  RH  073%=      5-min Rain = 0
KEN1 090143Z 11008KT M02/M06 A3024 RMK A01 T10151056  RH  074%=      5-min Rain = 0
KEN1 090144Z 10008KT M01/M06 A3024 RMK A01 T10141055  RH  074%=      5-min Rain = 0
KEN1 090145Z 10007KT M01/M05 A3024 RMK A01 T10131054  RH  074%=      5-min Rain = 0
KEN1 090146Z 10007KT M01/M06 A3024 RMK A01 T10131055  RH  073%=      5-min Rain = 0
KEN1 090147Z 10007KT M01/M06 A3024 RMK A01 T10131055  RH  073%=      5-min Rain = 0
KEN1 090148Z 10008KT M01/M06 A3024 RMK A01 T10131055  RH  073%=      5-min Rain = 0
KEN1 090149Z 10008KT M01/M06 A3025 RMK A01 T10141055  RH  073%=      5-min Rain = 0
KEN1 090150Z 10007KT M01/M06 A3025 RMK A01 T10141055  RH  074%=      5-min Rain = 0
KEN1 090151Z 10007KT M01/M05 A3025 RMK A01 T10131054  RH  074%=      5-min Rain = 0
KEN1 090152Z 10007KT M01/M05 A3025 RMK A01 T10131054  RH  074%=      5-min Rain = 0
KEN1 090153Z 10007KT M01/M06 A3025 RMK A01 T10131055  RH  073%=      5-min Rain = 0
KEN1 090154Z 10007KT M02/M06 A3025 RMK A01 T10151056  RH  074%=      5-min Rain = 0
KEN1 090155Z 10007KT M02/M06 A3025 RMK A01 T10151055  RH  074%=      5-min Rain = 0
KEN1 090156Z 10007KT M02/M06 A3025 RMK A01 T10161055  RH  074%=      5-min Rain = 0
KEN1 090157Z 10007KT M02/M06 A3025 RMK A01 T10161055  RH  075%=      5-min Rain = 0
KEN1 090158Z 10007KT M02/M05 A3025 RMK A01 T10161054  RH  075%=      5-min Rain = 0
KEN1 090159Z 10008KT M02/M05 A3025 RMK A01 T10161054  RH  075%=      5-min Rain = 0
KEN1 090200Z 10008KT M02/M05 A3025 RMK A01 T10161054  RH  076%=      5-min Rain = 0
KEN1 090201Z 10008KT M02/M05 A3025 RMK A01 T10171054  RH  076%=      5-min Rain = 0
KEN1 090202Z 11007KT M02/M05 A3025 RMK A01 T10171054  RH  076%=      5-min Rain = 0
KEN1 090203Z 11007KT M02/M05 A3025 RMK A01 T10161053  RH  076%=      5-min Rain = 0
KEN1 090204Z 11007KT M02/M05 A3025 RMK A01 T10151052  RH  076%=      5-min Rain = 0
KEN1 090205Z 11007KT M01/M05 A3025 RMK A01 T10141051  RH  076%=      5-min Rain = 0
KEN1 090206Z 10006KT M01/M05 A3025 RMK A01 T10141050  RH  076%=      5-min Rain = 0
KEN1 090207Z 10006KT M01/M05 A3025 RMK A01 T10141050  RH  076%=      5-min Rain = 0
KEN1 090208Z 10006KT M01/M05 A3025 RMK A01 T10141050  RH  076%=      5-min Rain = 0
KEN1 090209Z 11006KT M01/M05 A3025 RMK A01 T10141051  RH  076%=      5-min Rain = 0
KEN1 090210Z 10006KT M01/M05 A3025 RMK A01 T10141050  RH  076%=      5-min Rain = 0
KEN1 090211Z 10006KT M02/M05 A3025 RMK A01 T10151051  RH  076%=      5-min Rain = 0
KEN1 090212Z 10006KT M02/M05 A3025 RMK A01 T10161052  RH  076%=      5-min Rain = 0
KEN1 090213Z 11006KT M02/M05 A3025 RMK A01 T10161052  RH  076%=      5-min Rain = 0
KEN1 090214Z 11006KT M02/M05 A3025 RMK A01 T10171052  RH  077%=      5-min Rain = 0
KEN1 090215Z 10006KT M02/M05 A3025 RMK A01 T10171052  RH  077%=      5-min Rain = 0
KEN1 090216Z 10007KT M02/M05 A3025 RMK A01 T10181052  RH  077%=      5-min Rain = 0
KEN1 090217Z 10007KT M02/M05 A3025 RMK A01 T10181052  RH  077%=      5-min Rain = 0
KEN1 090218Z 10007KT M02/M05 A3025 RMK A01 T10181052  RH  078%=      5-min Rain = 0
KEN1 090219Z 10007KT M02/M05 A3025 RMK A01 T10181052  RH  078%=      5-min Rain = 0
KEN1 090220Z 10007KT M02/M05 A3025 RMK A01 T10181051  RH  078%=      5-min Rain = 0
KEN1 090221Z 10007KT M02/M05 A3025 RMK A01 T10181051  RH  078%=      5-min Rain = 0
KEN1 090222Z 10008KT M02/M05 A3025 RMK A01 T10171050  RH  078%=      5-min Rain = 0
KEN1 090223Z 10008KT M02/M05 A3025 RMK A01 T10171050  RH  078%=      5-min Rain = 0
KEN1 090224Z 11007KT M02/M05 A3025 RMK A01 T10161050  RH  078%=      5-min Rain = 0
KEN1 090225Z 10007KT M02/M05 A3025 RMK A01 T10161049  RH  078%=      5-min Rain = 0
KEN1 090226Z 10008KT M02/M05 A3025 RMK A01 T10151049  RH  078%=      5-min Rain = 0
KEN1 090227Z 10008KT M02/M05 A3025 RMK A01 T10151049  RH  078%=      5-min Rain = 0
KEN1 090228Z 11007KT M02/M05 A3026 RMK A01 T10151049  RH  078%=      5-min Rain = 0
KEN1 090229Z 11008KT M02/M05 A3026 RMK A01 T10151048  RH  078%=      5-min Rain = 0
KEN1 090230Z 11007KT M02/M05 A3026 RMK A01 T10151048  RH  078%=      5-min Rain = 0
KEN1 090231Z 10007KT M02/M05 A3026 RMK A01 T10151047  RH  078%=      5-min Rain = 0
KEN1 090232Z 10007KT M02/M05 A3026 RMK A01 T10151047  RH  078%=      5-min Rain = 0
KEN1 090233Z 11007KT M02/M05 A3026 RMK A01 T10151047  RH  079%=      5-min Rain = 0
KEN1 090234Z 11007KT M02/M05 A3026 RMK A01 T10151048  RH  079%=      5-min Rain = 0
KEN1 090235Z 11007KT M02/M05 A3026 RMK A01 T10161048  RH  079%=      5-min Rain = 0
KEN1 090236Z 11007KT M02/M05 A3026 RMK A01 T10161048  RH  079%=      5-min Rain = 0
KEN1 090237Z 11006KT M02/M05 A3026 RMK A01 T10171048  RH  079%=      5-min Rain = 0
KEN1 090238Z 10006KT M02/M05 A3026 RMK A01 T10171048  RH  079%=      5-min Rain = 0
KEN1 090239Z 11006KT M02/M05 A3026 RMK A01 T10181048  RH  080%=      5-min Rain = 0
KEN1 090240Z 11006KT M02/M05 A3026 RMK A01 T10181048  RH  080%=      5-min Rain = 0
KEN1 090241Z 11006KT M02/M05 A3026 RMK A01 T10181048  RH  080%=      5-min Rain = 0
KEN1 090242Z 11006KT M02/M05 A3026 RMK A01 T10181048  RH  080%=      5-min Rain = 0
KEN1 090243Z 11006KT M02/M05 A3026 RMK A01 T10171047  RH  080%=      5-min Rain = 0
KEN1 090244Z 11006KT M02/M05 A3026 RMK A01 T10171048  RH  080%=      5-min Rain = 0
KEN1 090245Z 10006KT M02/M05 A3026 RMK A01 T10171049  RH  079%=      5-min Rain = 0
KEN1 090246Z 10006KT M02/M05 A3026 RMK A01 T10191050  RH  079%=      5-min Rain = 0
KEN1 090247Z 10006KT M02/M05 A3026 RMK A01 T10201051  RH  080%=      5-min Rain = 0
KEN1 090248Z 10006KT M02/M05 A3026 RMK A01 T10211051  RH  080%=      5-min Rain = 0
KEN1 090249Z 10007KT M02/M05 A3026 RMK A01 T10221051  RH  081%=      5-min Rain = 0
KEN1 090250Z 11006KT M02/M05 A3026 RMK A01 T10231051  RH  081%=      5-min Rain = 0
KEN1 090251Z 10007KT M02/M05 A3026 RMK A01 T10231051  RH  081%=      5-min Rain = 0
KEN1 090252Z 10008KT M02/M05 A3026 RMK A01 T10231051  RH  081%=      5-min Rain = 0
KEN1 090253Z 11008KT M02/M05 A3027 RMK A01 T10241051  RH  081%=      5-min Rain = 0
KEN1 090254Z 11007KT M02/M05 A3027 RMK A01 T10231050  RH  082%=      5-min Rain = 0
KEN1 090255Z 11007KT M02/M05 A3027 RMK A01 T10231050  RH  082%=      5-min Rain = 0
KEN1 090256Z 11007KT M02/M05 A3027 RMK A01 T10231050  RH  082%=      5-min Rain = 0
KEN1 090257Z 11007KT M02/M05 A3027 RMK A01 T10231050  RH  082%=      5-min Rain = 0
KEN1 090258Z 11007KT M02/M05 A3027 RMK A01 T10241050  RH  082%=      5-min Rain = 0
KEN1 090259Z 10007KT M02/M05 A3027 RMK A01 T10241051  RH  082%=      5-min Rain = 0
KEN1 090300Z 11007KT M03/M05 A3027 RMK A01 T10251051  RH  083%=      5-min Rain = 0
KEN1 090301Z 12007KT M03/M05 A3027 RMK A01 T10261051  RH  083%=      5-min Rain = 0
KEN1 090302Z 12006KT M03/M05 A3027 RMK A01 T10271051  RH  083%=      5-min Rain = 0
KEN1 090303Z 13006KT M03/M05 A3027 RMK A01 T10271052  RH  083%=      5-min Rain = 0
KEN1 090304Z 13006KT M03/M05 A3027 RMK A01 T10281051  RH  084%=      5-min Rain = 0
KEN1 090305Z 12006KT M03/M05 A3027 RMK A01 T10281052  RH  084%=      5-min Rain = 0
KEN1 090306Z 12005KT M03/M05 A3027 RMK A01 T10301054  RH  084%=      5-min Rain = 0
KEN1 090307Z 12005KT M03/M06 A3027 RMK A01 T10311055  RH  084%=      5-min Rain = 0
KEN1 090308Z 12005KT M03/M06 A3027 RMK A01 T10331057  RH  084%=      5-min Rain = 0
KEN1 090309Z 12005KT M04/M06 A3027 RMK A01 T10351058  RH  084%=      5-min Rain = 0
KEN1 090310Z 13005KT M04/M06 A3027 RMK A01 T10361057  RH  085%=      5-min Rain = 0
KEN1 090311Z 13005KT M04/M06 A3027 RMK A01 T10361057  RH  085%=      5-min Rain = 0
KEN1 090312Z 14005KT M04/M06 A3027 RMK A01 T10371058  RH  086%=      5-min Rain = 0
KEN1 090313Z 14005KT M04/M06 A3027 RMK A01 T10381058  RH  086%=      5-min Rain = 0
KEN1 090314Z 14006KT M04/M06 A3027 RMK A01 T10381057  RH  087%=      5-min Rain = 0
KEN1 090315Z 13006KT M04/M06 A3027 RMK A01 T10371056  RH  087%=      5-min Rain = 0
KEN1 090316Z 13006KT M04/M05 A3027 RMK A01 T10361054  RH  087%=      5-min Rain = 0
KEN1 090317Z 12007KT M04/M05 A3027 RMK A01 T10351053  RH  087%=      5-min Rain = 0
KEN1 090318Z 12007KT M03/M05 A3027 RMK A01 T10341052  RH  087%=      5-min Rain = 0
KEN1 090319Z 12007KT M03/M05 A3027 RMK A01 T10341053  RH  086%=      5-min Rain = 0
KEN1 090320Z 13007KT M03/M05 A3027 RMK A01 T10341054  RH  086%=      5-min Rain = 0
KEN1 090321Z 13007KT M03/M05 A3027 RMK A01 T10331053  RH  086%=      5-min Rain = 0
KEN1 090322Z 13007KT M03/M05 A3027 RMK A01 T10331053  RH  086%=      5-min Rain = 0
KEN1 090323Z 13007KT M03/M05 A3027 RMK A01 T10331052  RH  086%=      5-min Rain = 0
KEN1 090324Z 13007KT M03/M05 A3027 RMK A01 T10321052  RH  086%=      5-min Rain = 0
KEN1 090325Z 13007KT M03/M05 A3027 RMK A01 T10331053  RH  086%=      5-min Rain = 0
KEN1 090326Z 13007KT M03/M05 A3027 RMK A01 T10331053  RH  086%=      5-min Rain = 0
KEN1 090327Z 12007KT M03/M05 A3027 RMK A01 T10331054  RH  086%=      5-min Rain = 0
KEN1 090328Z 12007KT M03/M05 A3027 RMK A01 T10341054  RH  086%=      5-min Rain = 0
KEN1 090329Z 12007KT M03/M05 A3027 RMK A01 T10341054  RH  086%=      5-min Rain = 0
KEN1 090330Z 12007KT M03/M05 A3027 RMK A01 T10341053  RH  087%=      5-min Rain = 0
KEN1 090331Z 12008KT M03/M05 A3027 RMK A01 T10341053  RH  087%=      5-min Rain = 0
KEN1 090332Z 12008KT M03/M05 A3027 RMK A01 T10341053  RH  087%=      5-min Rain = 0
KEN1 090333Z 12007KT M03/M05 A3027 RMK A01 T10341053  RH  087%=      5-min Rain = 0
KEN1 090334Z 12007KT M03/M05 A3027 RMK A01 T10341052  RH  087%=      5-min Rain = 0
KEN1 090335Z 12007KT M03/M05 A3027 RMK A01 T10341052  RH  087%=      5-min Rain = 0
KEN1 090336Z 12007KT M03/M05 A3027 RMK A01 T10341052  RH  087%=      5-min Rain = 0
KEN1 090337Z 12007KT M03/M05 A3027 RMK A01 T10341053  RH  087%=      5-min Rain = 0
KEN1 090338Z 12008KT M03/M05 A3027 RMK A01 T10341053  RH  087%=      5-min Rain = 0
KEN1 090339Z 12008KT M04/M05 A3027 RMK A01 T10351053  RH  087%=      5-min Rain = 0
KEN1 090340Z 12008KT M04/M05 A3027 RMK A01 T10351053  RH  087%=      5-min Rain = 0
KEN1 090341Z 12008KT M04/M05 A3027 RMK A01 T10351053  RH  087%=      5-min Rain = 0
KEN1 090342Z 12008KT M04/M05 A3027 RMK A01 T10351053  RH  087%=      5-min Rain = 0
KEN1 090343Z 12008KT M04/M05 A3027 RMK A01 T10351053  RH  087%=      5-min Rain = 0
KEN1 090344Z 12008KT M03/M05 A3027 RMK A01 T10341052  RH  087%=      5-min Rain = 0
KEN1 090345Z 12008KT M03/M05 A3027 RMK A01 T10341052  RH  087%=      5-min Rain = 0
KEN1 090346Z 13008KT M03/M05 A3027 RMK A01 T10341052  RH  087%=      5-min Rain = 0
KEN1 090347Z 13007KT M03/M05 A3027 RMK A01 T10341053  RH  087%=      5-min Rain = 0
KEN1 090348Z 13007KT M03/M05 A3027 RMK A01 T10341053  RH  087%=      5-min Rain = 0
KEN1 090349Z 12007KT M04/M05 A3027 RMK A01 T10351054  RH  087%=      5-min Rain = 0
KEN1 090350Z 12007KT M04/M05 A3027 RMK A01 T10351054  RH  087%=      5-min Rain = 0
KEN1 090351Z 12007KT M04/M05 A3027 RMK A01 T10351054  RH  087%=      5-min Rain = 0
KEN1 090352Z 13007KT M04/M05 A3027 RMK A01 T10361054  RH  088%=      5-min Rain = 0
KEN1 090353Z 13008KT M04/M05 A3027 RMK A01 T10351053  RH  088%=      5-min Rain = 0
KEN1 090354Z 13007KT M04/M05 A3027 RMK A01 T10351053  RH  088%=      5-min Rain = 0
KEN1 090355Z 13007KT M04/M05 A3027 RMK A01 T10351053  RH  088%=      5-min Rain = 0
KEN1 090356Z 13007KT M04/M05 A3027 RMK A01 T10351053  RH  088%=      5-min Rain = 0
KEN1 090357Z 13008KT M04/M05 A3027 RMK A01 T10361053  RH  088%=      5-min Rain = 0
KEN1 090358Z 13008KT M04/M05 A3027 RMK A01 T10361054  RH  088%=      5-min Rain = 0
KEN1 090359Z 13008KT M04/M05 A3027 RMK A01 T10361053  RH  088%=      5-min Rain = 0
KEN1 090400Z 14007KT M04/M05 A3027 RMK A01 T10371054  RH  088%=      5-min Rain = 0
KEN1 090401Z 14007KT M04/M05 A3028 RMK A01 T10371053  RH  088%=      5-min Rain = 0
KEN1 090402Z 14007KT M04/M05 A3028 RMK A01 T10361053  RH  088%=      5-min Rain = 0
KEN1 090403Z 14007KT M04/M05 A3028 RMK A01 T10361053  RH  088%=      5-min Rain = 0
KEN1 090404Z 14007KT M04/M05 A3028 RMK A01 T10361053  RH  088%=      5-min Rain = 0
KEN1 090405Z 14007KT M04/M05 A3028 RMK A01 T10361052  RH  088%=      5-min Rain = 0
KEN1 090406Z 14007KT M04/M05 A3028 RMK A01 T10351052  RH  088%=      5-min Rain = 0
KEN1 090407Z 14007KT M04/M05 A3028 RMK A01 T10351051  RH  088%=      5-min Rain = 0
KEN1 090408Z 14008KT M03/M05 A3028 RMK A01 T10331049  RH  089%=      5-min Rain = 0
KEN1 090409Z 14008KT M03/M05 A3028 RMK A01 T10321048  RH  089%=      5-min Rain = 0
KEN1 090410Z 14008KT M03/M05 A3028 RMK A01 T10301047  RH  088%=      5-min Rain = 0
KEN1 090411Z 14008KT M03/M05 A3028 RMK A01 T10291046  RH  088%=      5-min Rain = 0
KEN1 090412Z 14008KT M03/M05 A3028 RMK A01 T10281045  RH  088%=      5-min Rain = 0
KEN1 090413Z 14008KT M03/M04 A3028 RMK A01 T10261043  RH  088%=      5-min Rain = 0
KEN1 090414Z 14008KT M03/M04 A3028 RMK A01 T10261043  RH  088%=      5-min Rain = 0
KEN1 090415Z 14007KT M03/M04 A3028 RMK A01 T10251044  RH  087%=      5-min Rain = 0
KEN1 090416Z 14007KT M03/M04 A3028 RMK A01 T10251044  RH  087%=      5-min Rain = 0
KEN1 090417Z 14007KT M03/M05 A3028 RMK A01 T10251045  RH  086%=      5-min Rain = 0
KEN1 090418Z 14007KT M03/M05 A3028 RMK A01 T10261046  RH  086%=      5-min Rain = 0
KEN1 090419Z 13007KT M03/M05 A3028 RMK A01 T10271047  RH  086%=      5-min Rain = 0
KEN1 090420Z 13008KT M03/M05 A3028 RMK A01 T10281047  RH  087%=      5-min Rain = 0
KEN1 090421Z 14008KT M03/M05 A3028 RMK A01 T10281045  RH  088%=      5-min Rain = 0
KEN1 090422Z 13008KT M03/M04 A3028 RMK A01 T10261042  RH  088%=      5-min Rain = 0
KEN1 090423Z 14008KT M03/M04 A3028 RMK A01 T10251042  RH  088%=      5-min Rain = 0
KEN1 090424Z 14008KT M02/M04 A3028 RMK A01 T10241041  RH  088%=      5-min Rain = 0
KEN1 090425Z 14008KT M02/M04 A3028 RMK A01 T10231040  RH  088%=      5-min Rain = 0
KEN1 090426Z 14009KT M02/M04 A3028 RMK A01 T10221040  RH  088%=      5-min Rain = 0
KEN1 090427Z 14008KT M02/M04 A3028 RMK A01 T10211039  RH  088%=      5-min Rain = 0
KEN1 090428Z 14008KT M02/M04 A3028 RMK A01 T10211039  RH  088%=      5-min Rain = 0
KEN1 090429Z 14009KT M02/M04 A3028 RMK A01 T10201038  RH  088%=      5-min Rain = 0
KEN1 090430Z 14007KT M02/M04 A3028 RMK A01 T10201038  RH  088%=      5-min Rain = 0
KEN1 090431Z 14008KT M02/M04 A3028 RMK A01 T10201038  RH  087%=      5-min Rain = 0
KEN1 090432Z 14007KT M02/M04 A3028 RMK A01 T10201039  RH  087%=      5-min Rain = 0
KEN1 090433Z 14007KT M02/M04 A3028 RMK A01 T10211040  RH  087%=      5-min Rain = 0
KEN1 090434Z 13007KT M02/M04 A3028 RMK A01 T10231041  RH  087%=      5-min Rain = 0
KEN1 090435Z 13008KT M02/M04 A3028 RMK A01 T10241043  RH  087%=      5-min Rain = 0
KEN1 090436Z 13007KT M03/M05 A3028 RMK A01 T10261045  RH  087%=      5-min Rain = 0
KEN1 090437Z 13008KT M03/M05 A3028 RMK A01 T10281048  RH  087%=      5-min Rain = 0
KEN1 090438Z 13008KT M03/M05 A3028 RMK A01 T10301048  RH  087%=      5-min Rain = 0
KEN1 090439Z 14008KT M03/M05 A3028 RMK A01 T10311048  RH  088%=      5-min Rain = 0
KEN1 090440Z 14008KT M03/M05 A3028 RMK A01 T10311047  RH  089%=      5-min Rain = 0
KEN1 090441Z 13007KT M03/M05 A3028 RMK A01 T10311046  RH  089%=      5-min Rain = 0
KEN1 090442Z 13007KT M03/M05 A3028 RMK A01 T10301045  RH  090%=      5-min Rain = 0
KEN1 090443Z 13007KT M03/M04 A3028 RMK A01 T10301044  RH  090%=      5-min Rain = 0
KEN1 090444Z 13008KT M03/M04 A3028 RMK A01 T10301044  RH  090%=      5-min Rain = 0
KEN1 090445Z 13007KT M03/M04 A3028 RMK A01 T10301044  RH  090%=      5-min Rain = 0
KEN1 090446Z 13008KT M03/M04 A3028 RMK A01 T10301044  RH  090%=      5-min Rain = 0
KEN1 090447Z 13007KT M03/M04 A3028 RMK A01 T10301044  RH  090%=      5-min Rain = 0
KEN1 090448Z 13007KT M03/M04 A3028 RMK A01 T10301044  RH  090%=      5-min Rain = 0
KEN1 090449Z 13007KT M03/M04 A3028 RMK A01 T10301044  RH  090%=      5-min Rain = 0
KEN1 090450Z 13007KT M03/M05 A3028 RMK A01 T10311045  RH  090%=      5-min Rain = 0
KEN1 090451Z 13007KT M03/M05 A3028 RMK A01 T10311045  RH  090%=      5-min Rain = 0
KEN1 090452Z 13007KT M03/M05 A3028 RMK A01 T10321045  RH  090%=      5-min Rain = 0
KEN1 090453Z 13007KT M03/M05 A3028 RMK A01 T10321045  RH  090%=      5-min Rain = 0
KEN1 090454Z 13007KT M03/M05 A3028 RMK A01 T10331046  RH  090%=      5-min Rain = 0
KEN1 090455Z 13008KT M03/M05 A3028 RMK A01 T10341047  RH  090%=      5-min Rain = 0
KEN1 090456Z 13007KT M03/M05 A3028 RMK A01 T10341048  RH  091%=      5-min Rain = 0
KEN1 090457Z 13008KT M04/M05 A3028 RMK A01 T10351048  RH  091%=      5-min Rain = 0
KEN1 090458Z 12007KT M04/M05 A3028 RMK A01 T10351048  RH  091%=      5-min Rain = 0
KEN1 090459Z 13007KT M04/M05 A3028 RMK A01 T10361049  RH  091%=      5-min Rain = 0
KEN1 090500Z 13008KT M04/M05 A3028 RMK A01 T10361049  RH  091%=      5-min Rain = 0
KEN1 090501Z 13008KT M04/M05 A3028 RMK A01 T10371048  RH  092%=      5-min Rain = 0
KEN1 090502Z 13008KT M04/M05 A3028 RMK A01 T10371048  RH  092%=      5-min Rain = 0
KEN1 090503Z 13008KT M04/M05 A3028 RMK A01 T10371048  RH  092%=      5-min Rain = 0
KEN1 090504Z 13008KT M04/M05 A3028 RMK A01 T10361047  RH  092%=      5-min Rain = 0
KEN1 090505Z 13007KT M04/M05 A3028 RMK A01 T10371048  RH  092%=      5-min Rain = 0
KEN1 090506Z 13007KT M04/M05 A3028 RMK A01 T10361047  RH  092%=      5-min Rain = 0
KEN1 090507Z 13007KT M04/M05 A3028 RMK A01 T10361047  RH  092%=      5-min Rain = 0
KEN1 090508Z 13007KT M04/M05 A3028 RMK A01 T10361047  RH  092%=      5-min Rain = 0
KEN1 090509Z 12007KT M04/M05 A3028 RMK A01 T10361047  RH  092%=      5-min Rain = 0
KEN1 090510Z 12008KT M04/M05 A3028 RMK A01 T10361047  RH  092%=      5-min Rain = 0
KEN1 090511Z 12007KT M04/M05 A3028 RMK A01 T10361047  RH  092%=      5-min Rain = 0
KEN1 090512Z 12007KT M04/M05 A3028 RMK A01 T10361047  RH  092%=      5-min Rain = 0
KEN1 090513Z 12007KT M04/M05 A3028 RMK A01 T10371048  RH  092%=      5-min Rain = 0
KEN1 090514Z 12007KT M04/M05 A3028 RMK A01 T10371048  RH  092%=      5-min Rain = 0
KEN1 090515Z 12007KT M04/M05 A3028 RMK A01 T10371048  RH  092%=      5-min Rain = 0
KEN1 090516Z 12007KT M04/M05 A3028 RMK A01 T10371048  RH  092%=      5-min Rain = 0
KEN1 090517Z 12006KT M04/M05 A3028 RMK A01 T10381048  RH  093%=      5-min Rain = 0
KEN1 090518Z 12007KT M04/M05 A3028 RMK A01 T10381048  RH  093%=      5-min Rain = 0
KEN1 090519Z 12007KT M04/M05 A3028 RMK A01 T10391049  RH  093%=      5-min Rain = 0
KEN1 090520Z 12007KT M04/M05 A3028 RMK A01 T10391049  RH  093%=      5-min Rain = 0
KEN1 090521Z 12007KT M04/M05 A3028 RMK A01 T10401050  RH  093%=      5-min Rain = 0
KEN1 090522Z 12007KT M04/M05 A3028 RMK A01 T10401050  RH  093%=      5-min Rain = 0
KEN1 090523Z 12007KT M04/M05 A3028 RMK A01 T10401050  RH  093%=      5-min Rain = 0
KEN1 090524Z 12007KT M04/M05 A3028 RMK A01 T10401050  RH  093%=      5-min Rain = 0
KEN1 090525Z 12007KT M04/M05 A3028 RMK A01 T10401049  RH  093%=      5-min Rain = 0
KEN1 090526Z 12007KT M04/M05 A3028 RMK A01 T10391048  RH  093%=      5-min Rain = 0
KEN1 090527Z 13007KT M04/M05 A3028 RMK A01 T10381047  RH  094%=      5-min Rain = 0
KEN1 090528Z 13007KT M04/M05 A3028 RMK A01 T10381047  RH  094%=      5-min Rain = 0
KEN1 090529Z 12007KT M04/M05 A3028 RMK A01 T10381047  RH  094%=      5-min Rain = 0
KEN1 090530Z 12007KT M04/M05 A3028 RMK A01 T10371045  RH  094%=      5-min Rain = 0
KEN1 090531Z 12007KT M04/M04 A3028 RMK A01 T10361044  RH  094%=      5-min Rain = 0
KEN1 090532Z 12007KT M04/M04 A3028 RMK A01 T10351044  RH  094%=      5-min Rain = 0
KEN1 090533Z 13007KT M04/M04 A3028 RMK A01 T10351043  RH  094%=      5-min Rain = 0
KEN1 090534Z 13007KT M04/M04 A3029 RMK A01 T10351043  RH  094%=      5-min Rain = 0
KEN1 090535Z 13007KT M03/M04 A3029 RMK A01 T10341043  RH  094%=      5-min Rain = 0
KEN1 090536Z 13007KT M03/M04 A3029 RMK A01 T10341043  RH  094%=      5-min Rain = 0
KEN1 090537Z 13006KT M03/M04 A3029 RMK A01 T10341043  RH  093%=      5-min Rain = 0
KEN1 090538Z 13007KT M03/M04 A3029 RMK A01 T10341043  RH  093%=      5-min Rain = 0
KEN1 090539Z 13006KT M03/M04 A3029 RMK A01 T10331042  RH  093%=      5-min Rain = 0
KEN1 090540Z 13006KT M03/M04 A3029 RMK A01 T10331042  RH  093%=      5-min Rain = 0
KEN1 090541Z 14006KT M03/M04 A3029 RMK A01 T10331042  RH  093%=      5-min Rain = 0
KEN1 090542Z 14006KT M03/M04 A3029 RMK A01 T10331042  RH  093%=      5-min Rain = 0
KEN1 090543Z 14006KT M03/M04 A3029 RMK A01 T10321042  RH  093%=      5-min Rain = 0
KEN1 090544Z 14006KT M03/M04 A3029 RMK A01 T10321042  RH  093%=      5-min Rain = 0
KEN1 090545Z 14006KT M03/M04 A3029 RMK A01 T10321042  RH  093%=      5-min Rain = 0
KEN1 090546Z 14006KT M03/M04 A3029 RMK A01 T10321042  RH  093%=      5-min Rain = 0
KEN1 090547Z 14005KT M03/M04 A3029 RMK A01 T10321042  RH  093%=      5-min Rain = 0
KEN1 090548Z 14006KT M03/M04 A3028 RMK A01 T10321042  RH  093%=      5-min Rain = 0
KEN1 090549Z 14005KT M03/M04 A3028 RMK A01 T10321042  RH  093%=      5-min Rain = 0
KEN1 090550Z 14005KT M03/M04 A3028 RMK A01 T10321042  RH  093%=      5-min Rain = 0
KEN1 090551Z 14006KT M03/M04 A3028 RMK A01 T10321042  RH  093%=      5-min Rain = 0
KEN1 090552Z 14006KT M03/M04 A3028 RMK A01 T10321042  RH  093%=      5-min Rain = 0
KEN1 090553Z 14005KT M03/M04 A3028 RMK A01 T10321043  RH  093%=      5-min Rain = 0
KEN1 090554Z 14005KT M03/M04 A3028 RMK A01 T10331044  RH  092%=      5-min Rain = 0
KEN1 090555Z 14005KT M03/M04 A3028 RMK A01 T10331044  RH  092%=      5-min Rain = 0
KEN1 090556Z 14005KT M03/M04 A3028 RMK A01 T10331044  RH  093%=      5-min Rain = 0
KEN1 090557Z 14005KT M03/M04 A3028 RMK A01 T10331043  RH  093%=      5-min Rain = 0
KEN1 090558Z 14006KT M03/M04 A3028 RMK A01 T10331043  RH  093%=      5-min Rain = 0
KEN1 090559Z 14005KT M03/M04 A3028 RMK A01 T10331043  RH  093%=      5-min Rain = 0

Page generated in 0.0807 seconds.